Wetterdaten: Montag, 26.04.2010
Datum Zeit Temp. Innen Temp. Aussen UV X Diff Temp. Feuchte Inne Feuchte Auss Sonnenschein Luftdruck Regen ab 0,1 Wind Sonnenschein Windben
26.04.2010 00:00 20,1 C 14,7 C 0,0 UV-I 0,0 C 43 % 74 % 0 % 1023,9 hPa 0,0 l/m 2,8 km/h (1 Bft) 0 min 5,6 km/h (1 Bft)
26.04.2010 00:02 20,1 C 14,6 C 0,0 UV-I 0,0 C 43 % 75 % 0 % 1023,9 hPa 0,0 l/m 3,2 km/h (1 Bft) 0 min 12,0 km/h (2 Bft)
26.04.2010 00:04 20,1 C 14,6 C 0,0 UV-I 0,0 C 44 % 75 % 0 % 1023,9 hPa 0,0 l/m 3,2 km/h (1 Bft) 0 min 12,0 km/h (2 Bft)
26.04.2010 00:06 20,1 C 14,5 C 0,0 UV-I 0,0 C 44 % 75 % 0 % 1023,9 hPa 0,0 l/m 2,4 km/h (1 Bft) 0 min 0,0 km/h (0 Bft)
26.04.2010 00:08 20,1 C 14,4 C 0,0 UV-I 0,0 C 44 % 75 % 0 % 1023,9 hPa 0,1 l/m 2,0 km/h (1 Bft) 0 min 0,0 km/h (0 Bft)
26.04.2010 00:10 20,1 C 14,5 C 0,0 UV-I 0,0 C 44 % 75 % 0 % 1023,9 hPa 0,0 l/m 1,6 km/h (1 Bft) 0 min 0,0 km/h (0 Bft)
26.04.2010 00:12 20,1 C 14,5 C 0,0 UV-I 0,0 C 44 % 76 % 0 % 1023,6 hPa 0,1 l/m 0,8 km/h (0 Bft) 0 min 0,0 km/h (0 Bft)
26.04.2010 00:14 20,0 C 14,4 C 0,0 UV-I 0,0 C 44 % 76 % 0 % 1023,6 hPa 0,2 l/m 0,4 km/h (0 Bft) 0 min 5,6 km/h (1 Bft)
26.04.2010 00:16 20,1 C 14,3 C 0,0 UV-I 0,0 C 44 % 76 % 0 % 1023,6 hPa 0,0 l/m 0,8 km/h (0 Bft) 0 min 6,4 km/h (2 Bft)
26.04.2010 00:18 20,0 C 14,2 C 0,0 UV-I 0,0 C 44 % 77 % 0 % 1023,6 hPa 0,2 l/m 0,8 km/h (0 Bft) 0 min 5,2 km/h (1 Bft)
26.04.2010 00:20 20,0 C 14,3 C 0,0 UV-I 0,0 C 44 % 77 % 0 % 1023,6 hPa 0,1 l/m 1,2 km/h (1 Bft) 0 min 0,0 km/h (0 Bft)
26.04.2010 00:22 20,0 C 14,2 C 0,0 UV-I 0,0 C 44 % 77 % 0 % 1023,6 hPa 0,0 l/m 1,6 km/h (1 Bft) 0 min 4,0 km/h (1 Bft)
26.04.2010 00:24 20,0 C 14,1 C 0,0 UV-I 0,0 C 44 % 77 % 0 % 1023,6 hPa 0,1 l/m 1,6 km/h (1 Bft) 0 min 0,0 km/h (0 Bft)
26.04.2010 00:26 20,0 C 14,0 C 0,0 UV-I 0,0 C 44 % 78 % 0 % 1023,6 hPa 0,1 l/m 1,6 km/h (1 Bft) 0 min 8,8 km/h (2 Bft)
26.04.2010 00:28 20,0 C 14,1 C 0,0 UV-I 0,0 C 44 % 79 % 0 % 1023,6 hPa 0,0 l/m 1,2 km/h (1 Bft) 0 min 7,6 km/h (2 Bft)
26.04.2010 00:30 20,0 C 14,0 C 0,0 UV-I 0,0 C 44 % 80 % 0 % 1023,6 hPa 0,1 l/m 1,2 km/h (1 Bft) 0 min 6,4 km/h (2 Bft)
26.04.2010 00:34 20,0 C 13,9 C 0,0 UV-I 0,0 C 44 % 80 % 0 % 1023,8 hPa 0,3 l/m 1,2 km/h (1 Bft) 0 min 0,0 km/h (0 Bft)
26.04.2010 00:36 20,0 C 13,8 C 0,0 UV-I 0,0 C 44 % 81 % 0 % 1023,8 hPa 0,3 l/m 1,6 km/h (1 Bft) 0 min 5,2 km/h (1 Bft)
26.04.2010 00:38 20,0 C 13,8 C 0,0 UV-I 0,0 C 44 % 81 % 0 % 1023,8 hPa 0,3 l/m 1,6 km/h (1 Bft) 0 min 0,0 km/h (0 Bft)
26.04.2010 00:40 20,0 C 13,7 C 0,0 UV-I 0,0 C 44 % 81 % 0 % 1023,8 hPa 0,0 l/m 1,2 km/h (1 Bft) 0 min 0,0 km/h (0 Bft)
26.04.2010 00:42 20,0 C 13,7 C 0,0 UV-I 0,0 C 45 % 81 % 0 % 1023,8 hPa 0,2 l/m 1,2 km/h (1 Bft) 0 min 4,4 km/h (1 Bft)
26.04.2010 00:44 20,0 C 13,6 C 0,0 UV-I 0,0 C 45 % 81 % 0 % 1023,8 hPa 0,2 l/m 1,2 km/h (1 Bft) 0 min 0,0 km/h (0 Bft)
26.04.2010 00:46 20,0 C 13,6 C 0,0 UV-I 0,0 C 45 % 82 % 0 % 1023,8 hPa 0,0 l/m 1,2 km/h (1 Bft) 0 min 6,8 km/h (2 Bft)
26.04.2010 00:48 20,0 C 13,6 C 0,0 UV-I 0,0 C 45 % 82 % 0 % 1023,8 hPa 0,2 l/m 1,6 km/h (1 Bft) 0 min 8,4 km/h (2 Bft)
26.04.2010 00:52 20,0 C 13,5 C 0,0 UV-I 0,0 C 45 % 82 % 0 % 1023,1 hPa 0,2 l/m 1,2 km/h (1 Bft) 0 min 0,0 km/h (0 Bft)
26.04.2010 00:54 20,0 C 13,5 C 0,0 UV-I 0,0 C 45 % 82 % 0 % 1023,1 hPa 0,2 l/m 1,2 km/h (1 Bft) 0 min 0,0 km/h (0 Bft)
26.04.2010 00:56 20,0 C 13,5 C 0,0 UV-I 0,0 C 45 % 83 % 0 % 1023,1 hPa 0,0 l/m 1,6 km/h (1 Bft) 0 min 0,0 km/h (0 Bft)
26.04.2010 00:58 20,0 C 13,5 C 0,0 UV-I 0,0 C 45 % 83 % 0 % 1023,1 hPa 0,0 l/m 0,8 km/h (0 Bft) 0 min 0,0 km/h (0 Bft)
26.04.2010 01:00 20,0 C 13,5 C 0,0 UV-I 0,0 C 45 % 83 % 0 % 1023,1 hPa 0,0 l/m 0,4 km/h (0 Bft) 0 min 0,0 km/h (0 Bft)
26.04.2010 01:02 20,0 C 13,4 C 0,0 UV-I 0,0 C 45 % 84 % 0 % 1023,1 hPa 0,0 l/m 0,8 km/h (0 Bft) 0 min 0,0 km/h (0 Bft)
26.04.2010 01:04 19,9 C 13,3 C 0,0 UV-I 0,0 C 45 % 84 % 0 % 1023,1 hPa 0,1 l/m 0,8 km/h (0 Bft) 0 min 4,0 km/h (1 Bft)
26.04.2010 01:06 19,9 C 13,3 C 0,0 UV-I 0,0 C 45 % 84 % 0 % 1023,1 hPa 0,0 l/m 0,8 km/h (0 Bft) 0 min 0,0 km/h (0 Bft)
26.04.2010 01:08 19,9 C 13,3 C 0,0 UV-I 0,0 C 45 % 84 % 0 % 1023,1 hPa 0,0 l/m 0,8 km/h (0 Bft) 0 min 0,0 km/h (0 Bft)
26.04.2010 01:10 19,9 C 13,3 C 0,0 UV-I 0,0 C 46 % 84 % 0 % 1023,1 hPa 0,0 l/m 0,8 km/h (0 Bft) 0 min 0,0 km/h (0 Bft)
26.04.2010 01:12 19,9 C 13,2 C 0,0 UV-I 0,0 C 46 % 84 % 0 % 1023,7 hPa 0,0 l/m 0,8 km/h (0 Bft) 0 min 0,0 km/h (0 Bft)
26.04.2010 01:14 19,9 C 13,2 C 0,0 UV-I 0,0 C 46 % 84 % 0 % 1023,7 hPa 0,0 l/m 0,8 km/h (0 Bft) 0 min 0,0 km/h (0 Bft)
26.04.2010 01:16 19,9 C 13,3 C 0,0 UV-I 0,0 C 46 % 85 % 0 % 1023,7 hPa 0,0 l/m 0,8 km/h (0 Bft) 0 min 0,0 km/h (0 Bft)
26.04.2010 01:18 19,9 C 13,3 C 0,0 UV-I 0,0 C 46 % 85 % 0 % 1023,7 hPa 0,0 l/m 0,8 km/h (0 Bft) 0 min 0,0 km/h (0 Bft)
26.04.2010 01:20 19,9 C 13,3 C 0,0 UV-I 0,0 C 46 % 85 % 0 % 1023,7 hPa 0,0 l/m 0,8 km/h (0 Bft) 0 min 0,0 km/h (0 Bft)
26.04.2010 01:22 19,9 C 13,2 C 0,0 UV-I 0,0 C 46 % 85 % 0 % 1023,7 hPa 0,0 l/m 0,4 km/h (0 Bft) 0 min 0,0 km/h (0 Bft)
26.04.2010 01:26 19,9 C 13,2 C 0,0 UV-I 0,0 C 46 % 85 % 0 % 1023,7 hPa 0,0 l/m 0,4 km/h (0 Bft) 0 min 0,0 km/h (0 Bft)
26.04.2010 01:28 19,8 C 13,1 C 0,0 UV-I 0,0 C 46 % 85 % 0 % 1023,7 hPa 0,0 l/m 0,4 km/h (0 Bft) 0 min 0,0 km/h (0 Bft)
26.04.2010 01:30 19,8 C 13,1 C 0,0 UV-I 0,0 C 46 % 85 % 0 % 1023,7 hPa 0,0 l/m 0,8 km/h (0 Bft) 0 min 4,4 km/h (1 Bft)
26.04.2010 01:32 19,8 C 13,1 C 0,0 UV-I 0,0 C 46 % 85 % 0 % 1023,6 hPa 0,0 l/m 0,4 km/h (0 Bft) 0 min 4,0 km/h (1 Bft)
26.04.2010 01:34 19,8 C 13,0 C 0,0 UV-I 0,0 C 46 % 85 % 0 % 1023,6 hPa 0,0 l/m 0,4 km/h (0 Bft) 0 min 6,8 km/h (2 Bft)
26.04.2010 01:36 19,8 C 13,1 C 0,0 UV-I 0,0 C 46 % 86 % 0 % 1023,6 hPa 0,0 l/m 1,2 km/h (1 Bft) 0 min 0,0 km/h (0 Bft)
26.04.2010 01:38 19,8 C 13,1 C 0,0 UV-I 0,0 C 47 % 86 % 0 % 1023,6 hPa 0,0 l/m 1,6 km/h (1 Bft) 0 min 10,0 km/h (2 Bft)
26.04.2010 01:40 19,8 C 13,1 C 0,0 UV-I 0,0 C 47 % 86 % 0 % 1023,6 hPa 0,0 l/m 2,0 km/h (1 Bft) 0 min 4,4 km/h (1 Bft)
26.04.2010 01:44 19,8 C 13,0 C 0,0 UV-I 0,0 C 47 % 86 % 0 % 1023,6 hPa 0,0 l/m 2,0 km/h (1 Bft) 0 min 5,6 km/h (1 Bft)
26.04.2010 01:46 19,8 C 13,0 C 0,0 UV-I 0,0 C 47 % 86 % 0 % 1023,6 hPa 0,0 l/m 1,2 km/h (1 Bft) 0 min 0,0 km/h (0 Bft)
26.04.2010 01:48 19,8 C 12,9 C 0,0 UV-I 0,0 C 47 % 86 % 0 % 1023,6 hPa 0,0 l/m 0,8 km/h (0 Bft) 0 min 0,0 km/h (0 Bft)
26.04.2010 01:50 19,8 C 12,9 C 0,0 UV-I 0,0 C 47 % 86 % 0 % 1023,6 hPa 0,0 l/m 0,4 km/h (0 Bft) 0 min 0,0 km/h (0 Bft)
26.04.2010 01:52 19,8 C 12,9 C 0,0 UV-I 0,0 C 47 % 86 % 0 % 1022,9 hPa 0,0 l/m 0,4 km/h (0 Bft) 0 min 0,0 km/h (0 Bft)
26.04.2010 01:54 19,8 C 12,9 C 0,0 UV-I 0,0 C 47 % 86 % 0 % 1022,9 hPa 0,0 l/m 0,0 km/h (0 Bft) 0 min 0,0 km/h (0 Bft)
26.04.2010 01:56 19,8 C 12,9 C 0,0 UV-I 0,0 C 47 % 86 % 0 % 1022,9 hPa 0,0 l/m 0,0 km/h (0 Bft) 0 min 0,0 km/h (0 Bft)
26.04.2010 01:58 19,7 C 12,9 C 0,0 UV-I 0,0 C 47 % 87 % 0 % 1022,9 hPa 0,0 l/m 0,0 km/h (0 Bft) 0 min 0,0 km/h (0 Bft)
26.04.2010 02:00 19,8 C 12,8 C 0,0 UV-I 0,0 C 47 % 86 % 0 % 1022,9 hPa 0,0 l/m 0,0 km/h (0 Bft) 0 min 0,0 km/h (0 Bft)
26.04.2010 02:02 19,7 C 12,8 C 0,0 UV-I 0,0 C 47 % 87 % 0 % 1022,9 hPa 0,0 l/m 0,4 km/h (0 Bft) 0 min 0,0 km/h (0 Bft)
26.04.2010 02:04 19,7 C 12,9 C 0,0 UV-I 0,0 C 47 % 87 % 0 % 1022,9 hPa 0,0 l/m 0,4 km/h (0 Bft) 0 min 0,0 km/h (0 Bft)
26.04.2010 02:06 19,7 C 12,8 C 0,0 UV-I 0,0 C 47 % 87 % 0 % 1022,9 hPa 0,0 l/m 0,4 km/h (0 Bft) 0 min 0,0 km/h (0 Bft)
26.04.2010 02:08 19,7 C 12,8 C 0,0 UV-I 0,0 C 47 % 87 % 0 % 1022,9 hPa 0,0 l/m 0,4 km/h (0 Bft) 0 min 0,0 km/h (0 Bft)
26.04.2010 02:10 19,7 C 12,8 C 0,0 UV-I 0,0 C 47 % 87 % 0 % 1022,9 hPa 0,0 l/m 0,4 km/h (0 Bft) 0 min 0,0 km/h (0 Bft)
26.04.2010 02:12 19,7 C 12,7 C 0,0 UV-I 0,0 C 47 % 87 % 0 % 1023,1 hPa 0,0 l/m 0,0 km/h (0 Bft) 0 min 0,0 km/h (0 Bft)
26.04.2010 02:14 19,7 C 12,7 C 0,0 UV-I 0,0 C 47 % 87 % 0 % 1023,1 hPa 0,0 l/m 0,0 km/h (0 Bft) 0 min 0,0 km/h (0 Bft)
26.04.2010 02:16 19,7 C 12,7 C 0,0 UV-I 0,0 C 47 % 87 % 0 % 1023,1 hPa 0,0 l/m 0,0 km/h (0 Bft) 0 min 0,0 km/h (0 Bft)
26.04.2010 02:18 19,7 C 12,7 C 0,0 UV-I 0,0 C 47 % 87 % 0 % 1023,1 hPa 0,0 l/m 0,0 km/h (0 Bft) 0 min 0,0 km/h (0 Bft)
26.04.2010 02:20 19,7 C 12,7 C 0,0 UV-I 0,0 C 47 % 87 % 0 % 1023,1 hPa 0,0 l/m 0,0 km/h (0 Bft) 0 min 0,0 km/h (0 Bft)
26.04.2010 02:22 19,7 C 12,7 C 0,0 UV-I 0,0 C 47 % 87 % 0 % 1023,1 hPa 0,0 l/m 0,0 km/h (0 Bft) 0 min 0,0 km/h (0 Bft)
26.04.2010 02:24 19,7 C 12,7 C 0,0 UV-I 0,0 C 47 % 87 % 0 % 1023,1 hPa 0,0 l/m 0,0 km/h (0 Bft) 0 min 0,0 km/h (0 Bft)
26.04.2010 02:26 19,7 C 12,6 C 0,0 UV-I 0,0 C 47 % 87 % 0 % 1023,1 hPa 0,0 l/m 0,0 km/h (0 Bft) 0 min 0,0 km/h (0 Bft)
26.04.2010 02:28 19,7 C 12,7 C 0,0 UV-I 0,0 C 47 % 87 % 0 % 1023,1 hPa 0,0 l/m 0,0 km/h (0 Bft) 0 min 0,0 km/h (0 Bft)
26.04.2010 02:32 19,6 C 12,7 C 0,0 UV-I 0,0 C 48 % 88 % 0 % 1022,9 hPa 0,0 l/m 0,0 km/h (0 Bft) 0 min 0,0 km/h (0 Bft)
26.04.2010 02:34 19,6 C 12,7 C 0,0 UV-I 0,0 C 48 % 88 % 0 % 1022,9 hPa 0,0 l/m 0,0 km/h (0 Bft) 0 min 0,0 km/h (0 Bft)
26.04.2010 02:36 19,6 C 12,7 C 0,0 UV-I 0,0 C 48 % 88 % 0 % 1022,9 hPa 0,0 l/m 0,0 km/h (0 Bft) 0 min 0,0 km/h (0 Bft)
26.04.2010 02:38 19,6 C 12,5 C 0,0 UV-I 0,0 C 48 % 88 % 0 % 1022,9 hPa 0,0 l/m 0,0 km/h (0 Bft) 0 min 0,0 km/h (0 Bft)
26.04.2010 02:40 19,6 C 12,5 C 0,0 UV-I 0,0 C 48 % 88 % 0 % 1022,9 hPa 0,0 l/m 0,0 km/h (0 Bft) 0 min 0,0 km/h (0 Bft)
26.04.2010 02:44 19,6 C 12,5 C 0,0 UV-I 0,0 C 48 % 88 % 0 % 1022,9 hPa 0,0 l/m 0,0 km/h (0 Bft) 0 min 0,0 km/h (0 Bft)
26.04.2010 02:50 19,6 C 12,5 C 0,0 UV-I 0,0 C 48 % 88 % 0 % 1022,9 hPa 0,0 l/m 0,8 km/h (0 Bft) 0 min 5,2 km/h (1 Bft)
26.04.2010 02:52 19,6 C 12,5 C 0,0 UV-I 0,0 C 48 % 88 % 0 % 1022,9 hPa 0,0 l/m 0,8 km/h (0 Bft) 0 min 0,0 km/h (0 Bft)
26.04.2010 02:56 19,6 C 12,5 C 0,0 UV-I 0,0 C 48 % 88 % 0 % 1022,9 hPa 0,0 l/m 1,2 km/h (1 Bft) 0 min 5,2 km/h (1 Bft)
26.04.2010 02:58 19,6 C 12,5 C 0,0 UV-I 0,0 C 48 % 89 % 0 % 1022,9 hPa 0,0 l/m 1,2 km/h (1 Bft) 0 min 6,4 km/h (2 Bft)
26.04.2010 03:00 19,6 C 12,5 C 0,0 UV-I 0,0 C 48 % 88 % 0 % 1022,9 hPa 0,0 l/m 1,2 km/h (1 Bft) 0 min 0,0 km/h (0 Bft)
26.04.2010 03:02 19,6 C 12,5 C 0,0 UV-I 0,0 C 48 % 89 % 0 % 1022,9 hPa 0,0 l/m 1,2 km/h (1 Bft) 0 min 7,2 km/h (2 Bft)
26.04.2010 03:04 19,6 C 12,5 C 0,0 UV-I 0,0 C 48 % 89 % 0 % 1022,9 hPa 0,0 l/m 1,2 km/h (1 Bft) 0 min 7,2 km/h (2 Bft)
26.04.2010 03:06 19,6 C 12,4 C 0,0 UV-I 0,0 C 48 % 89 % 0 % 1022,9 hPa 0,0 l/m 1,6 km/h (1 Bft) 0 min 0,0 km/h (0 Bft)
26.04.2010 03:08 19,6 C 12,4 C 0,0 UV-I 0,0 C 48 % 89 % 0 % 1022,9 hPa 0,0 l/m 1,6 km/h (1 Bft) 0 min 0,0 km/h (0 Bft)
26.04.2010 03:10 19,6 C 12,4 C 0,0 UV-I 0,0 C 48 % 89 % 0 % 1022,9 hPa 0,0 l/m 1,2 km/h (1 Bft) 0 min 0,0 km/h (0 Bft)
26.04.2010 03:12 19,6 C 12,5 C 0,0 UV-I 0,0 C 48 % 88 % 0 % 1023,1 hPa 0,0 l/m 1,2 km/h (1 Bft) 0 min 0,0 km/h (0 Bft)
26.04.2010 03:14 19,6 C 12,5 C 0,0 UV-I 0,0 C 48 % 88 % 0 % 1023,1 hPa 0,0 l/m 0,4 km/h (0 Bft) 0 min 5,2 km/h (1 Bft)
26.04.2010 03:16 19,6 C 12,5 C 0,0 UV-I 0,0 C 48 % 88 % 0 % 1023,1 hPa 0,0 l/m 0,8 km/h (0 Bft) 0 min 0,0 km/h (0 Bft)
26.04.2010 03:18 19,6 C 12,4 C 0,0 UV-I 0,0 C 48 % 88 % 0 % 1023,1 hPa 0,0 l/m 0,8 km/h (0 Bft) 0 min 4,4 km/h (1 Bft)
26.04.2010 03:22 19,5 C 12,3 C 0,0 UV-I 0,0 C 48 % 88 % 0 % 1023,1 hPa 0,0 l/m 0,4 km/h (0 Bft) 0 min 0,0 km/h (0 Bft)
26.04.2010 03:24 19,5 C 12,3 C 0,0 UV-I 0,0 C 48 % 88 % 0 % 1023,1 hPa 0,0 l/m 0,4 km/h (0 Bft) 0 min 0,0 km/h (0 Bft)
26.04.2010 03:26 19,5 C 12,3 C 0,0 UV-I 0,0 C 49 % 89 % 0 % 1023,1 hPa 0,0 l/m 0,0 km/h (0 Bft) 0 min 0,0 km/h (0 Bft)
26.04.2010 03:28 19,5 C 12,3 C 0,0 UV-I 0,0 C 49 % 88 % 0 % 1023,1 hPa 0,0 l/m 0,4 km/h (0 Bft) 0 min 7,2 km/h (2 Bft)
26.04.2010 03:30 19,5 C 12,3 C 0,0 UV-I 0,0 C 49 % 88 % 0 % 1023,1 hPa 0,0 l/m 0,4 km/h (0 Bft) 0 min 0,0 km/h (0 Bft)
26.04.2010 03:32 19,5 C 12,3 C 0,0 UV-I 0,0 C 49 % 88 % 0 % 1023,1 hPa 0,0 l/m 0,4 km/h (0 Bft) 0 min 0,0 km/h (0 Bft)
26.04.2010 03:38 19,5 C 12,2 C 0,0 UV-I 0,0 C 49 % 88 % 0 % 1023,1 hPa 0,0 l/m 0,8 km/h (0 Bft) 0 min 4,0 km/h (1 Bft)
26.04.2010 03:40 19,5 C 12,1 C 0,0 UV-I 0,0 C 49 % 88 % 0 % 1023,1 hPa 0,0 l/m 0,4 km/h (0 Bft) 0 min 0,0 km/h (0 Bft)
26.04.2010 03:42 19,5 C 12,1 C 0,0 UV-I 0,0 C 49 % 88 % 0 % 1023,1 hPa 0,0 l/m 0,4 km/h (0 Bft) 0 min 0,0 km/h (0 Bft)
26.04.2010 03:44 19,4 C 12,1 C 0,0 UV-I 0,0 C 49 % 88 % 0 % 1023,1 hPa 0,0 l/m 0,4 km/h (0 Bft) 0 min 0,0 km/h (0 Bft)
26.04.2010 03:50 19,4 C 12,0 C 0,0 UV-I 0,0 C 49 % 88 % 0 % 1023,1 hPa 0,0 l/m 0,0 km/h (0 Bft) 0 min 0,0 km/h (0 Bft)
26.04.2010 03:52 19,4 C 11,9 C 0,0 UV-I 0,0 C 49 % 88 % 0 % 1023,1 hPa 0,0 l/m 0,0 km/h (0 Bft) 0 min 0,0 km/h (0 Bft)
26.04.2010 03:54 19,4 C 11,9 C 0,0 UV-I 0,0 C 49 % 88 % 0 % 1023,1 hPa 0,0 l/m 0,0 km/h (0 Bft) 0 min 0,0 km/h (0 Bft)
26.04.2010 03:58 19,4 C 11,9 C 0,0 UV-I 0,0 C 49 % 88 % 0 % 1023,1 hPa 0,0 l/m 0,4 km/h (0 Bft) 0 min 0,0 km/h (0 Bft)
26.04.2010 04:00 19,2 C 11,8 C 0,0 UV-I 0,0 C 49 % 88 % 0 % 1023,1 hPa 0,0 l/m 0,4 km/h (0 Bft) 0 min 0,0 km/h (0 Bft)
26.04.2010 04:02 19,2 C 11,8 C 0,0 UV-I 0,0 C 49 % 88 % 0 % 1023,1 hPa 0,0 l/m 0,4 km/h (0 Bft) 0 min 0,0 km/h (0 Bft)
26.04.2010 04:04 19,2 C 11,7 C 0,0 UV-I 0,0 C 49 % 88 % 0 % 1023,1 hPa 0,0 l/m 0,4 km/h (0 Bft) 0 min 0,0 km/h (0 Bft)
26.04.2010 04:06 19,3 C 11,7 C 0,0 UV-I 0,0 C 49 % 88 % 0 % 1023,1 hPa 0,0 l/m 0,4 km/h (0 Bft) 0 min 0,0 km/h (0 Bft)
26.04.2010 04:08 19,3 C 11,6 C 0,0 UV-I 0,0 C 49 % 88 % 0 % 1023,1 hPa 0,0 l/m 0,0 km/h (0 Bft) 0 min 0,0 km/h (0 Bft)
26.04.2010 04:10 19,2 C 11,6 C 0,0 UV-I 0,0 C 49 % 88 % 0 % 1023,1 hPa 0,0 l/m 0,0 km/h (0 Bft) 0 min 0,0 km/h (0 Bft)
26.04.2010 04:13 19,2 C 11,6 C 0,0 UV-I 0,0 C 49 % 88 % 0 % 1023,2 hPa 0,0 l/m 0,0 km/h (0 Bft) 0 min 0,0 km/h (0 Bft)
26.04.2010 04:19 19,2 C 11,5 C 0,0 UV-I 0,0 C 50 % 89 % 0 % 1023,2 hPa 0,0 l/m 0,0 km/h (0 Bft) 0 min 0,0 km/h (0 Bft)
26.04.2010 04:20 19,2 C 11,5 C 0,0 UV-I 0,0 C 50 % 89 % 0 % 1023,2 hPa 0,0 l/m 0,0 km/h (0 Bft) 0 min 0,0 km/h (0 Bft)
26.04.2010 04:22 19,2 C 11,5 C 0,0 UV-I 0,0 C 49 % 89 % 0 % 1023,2 hPa 0,0 l/m 0,0 km/h (0 Bft) 0 min 0,0 km/h (0 Bft)
26.04.2010 04:24 19,2 C 11,4 C 0,0 UV-I 0,0 C 50 % 89 % 0 % 1023,2 hPa 0,0 l/m 0,0 km/h (0 Bft) 0 min 0,0 km/h (0 Bft)
26.04.2010 04:26 19,2 C 11,5 C 0,0 UV-I 0,0 C 50 % 89 % 0 % 1023,2 hPa 0,0 l/m 0,0 km/h (0 Bft) 0 min 0,0 km/h (0 Bft)
26.04.2010 04:28 19,2 C 11,5 C 0,0 UV-I 0,0 C 50 % 89 % 0 % 1023,2 hPa 0,0 l/m 0,0 km/h (0 Bft) 0 min 0,0 km/h (0 Bft)
26.04.2010 04:30 19,2 C 11,4 C 0,0 UV-I 0,0 C 50 % 89 % 0 % 1023,2 hPa 0,0 l/m 0,0 km/h (0 Bft) 0 min 0,0 km/h (0 Bft)
26.04.2010 04:32 19,2 C 11,3 C 0,0 UV-I 0,0 C 50 % 89 % 0 % 1023,1 hPa 0,0 l/m 0,0 km/h (0 Bft) 0 min 0,0 km/h (0 Bft)
26.04.2010 04:34 19,1 C 11,2 C 0,0 UV-I 0,0 C 50 % 89 % 0 % 1023,1 hPa 0,0 l/m 0,0 km/h (0 Bft) 0 min 0,0 km/h (0 Bft)
26.04.2010 04:36 19,2 C 11,2 C 0,0 UV-I 0,0 C 50 % 89 % 0 % 1023,1 hPa 0,0 l/m 0,0 km/h (0 Bft) 0 min 0,0 km/h (0 Bft)
26.04.2010 04:38 19,2 C 11,2 C 0,0 UV-I 0,0 C 50 % 89 % 0 % 1023,1 hPa 0,0 l/m 0,0 km/h (0 Bft) 0 min 0,0 km/h (0 Bft)
26.04.2010 04:40 19,1 C 11,2 C 0,0 UV-I 0,0 C 50 % 89 % 0 % 1023,1 hPa 0,0 l/m 0,0 km/h (0 Bft) 0 min 0,0 km/h (0 Bft)
26.04.2010 04:42 19,1 C 11,1 C 0,0 UV-I 0,0 C 50 % 89 % 0 % 1023,1 hPa 0,0 l/m 0,0 km/h (0 Bft) 0 min 0,0 km/h (0 Bft)
26.04.2010 04:44 19,1 C 11,1 C 0,0 UV-I 0,0 C 50 % 89 % 0 % 1023,1 hPa 0,0 l/m 0,0 km/h (0 Bft) 0 min 0,0 km/h (0 Bft)
26.04.2010 04:46 19,1 C 11,0 C 0,0 UV-I 0,0 C 50 % 89 % 0 % 1023,1 hPa 0,0 l/m 0,0 km/h (0 Bft) 0 min 0,0 km/h (0 Bft)
26.04.2010 04:48 19,1 C 11,1 C 0,0 UV-I 0,0 C 50 % 89 % 0 % 1023,1 hPa 0,0 l/m 0,0 km/h (0 Bft) 0 min 4,0 km/h (1 Bft)
26.04.2010 04:50 19,1 C 11,1 C 0,0 UV-I 0,0 C 50 % 89 % 0 % 1023,1 hPa 0,0 l/m 0,0 km/h (0 Bft) 0 min 0,0 km/h (0 Bft)
26.04.2010 04:52 19,1 C 10,9 C 0,0 UV-I 0,0 C 50 % 89 % 0 % 1023,0 hPa 0,0 l/m 0,0 km/h (0 Bft) 0 min 0,0 km/h (0 Bft)
26.04.2010 04:54 19,0 C 10,9 C 0,0 UV-I 0,0 C 50 % 89 % 0 % 1023,0 hPa 0,0 l/m 0,4 km/h (0 Bft) 0 min 4,8 km/h (1 Bft)
26.04.2010 04:56 19,1 C 10,9 C 0,0 UV-I 0,0 C 50 % 89 % 0 % 1023,0 hPa 0,0 l/m 0,4 km/h (0 Bft) 0 min 0,0 km/h (0 Bft)
26.04.2010 04:58 19,1 C 10,8 C 0,0 UV-I 0,0 C 50 % 89 % 0 % 1023,0 hPa 0,0 l/m 0,4 km/h (0 Bft) 0 min 0,0 km/h (0 Bft)
26.04.2010 05:00 19,0 C 10,8 C 0,0 UV-I 0,0 C 50 % 89 % 0 % 1023,0 hPa 0,0 l/m 0,0 km/h (0 Bft) 0 min 0,0 km/h (0 Bft)
26.04.2010 05:02 19,0 C 10,9 C 0,0 UV-I 0,0 C 50 % 89 % 0 % 1023,0 hPa 0,0 l/m 0,0 km/h (0 Bft) 0 min 0,0 km/h (0 Bft)
26.04.2010 05:04 19,0 C 10,8 C 0,0 UV-I 0,0 C 50 % 89 % 0 % 1023,0 hPa 0,0 l/m 0,0 km/h (0 Bft) 0 min 0,0 km/h (0 Bft)
26.04.2010 05:06 19,0 C 10,8 C 0,0 UV-I 0,0 C 50 % 89 % 0 % 1023,0 hPa 0,0 l/m 0,0 km/h (0 Bft) 0 min 0,0 km/h (0 Bft)
26.04.2010 05:08 19,0 C 10,7 C 0,0 UV-I 0,0 C 50 % 89 % 0 % 1023,0 hPa 0,0 l/m 0,0 km/h (0 Bft) 0 min 0,0 km/h (0 Bft)
26.04.2010 05:10 19,0 C 10,7 C 0,0 UV-I 0,0 C 50 % 89 % 0 % 1023,0 hPa 0,0 l/m 0,0 km/h (0 Bft) 0 min 0,0 km/h (0 Bft)
26.04.2010 05:12 19,0 C 10,7 C 0,0 UV-I 0,0 C 50 % 89 % 0 % 1023,2 hPa 0,0 l/m 0,0 km/h (0 Bft) 0 min 0,0 km/h (0 Bft)
26.04.2010 05:14 19,0 C 10,7 C 0,0 UV-I 0,0 C 50 % 89 % 0 % 1023,2 hPa 0,0 l/m 0,0 km/h (0 Bft) 0 min 0,0 km/h (0 Bft)
26.04.2010 05:16 19,0 C 10,7 C 0,0 UV-I 0,0 C 50 % 89 % 0 % 1023,2 hPa 0,0 l/m 0,0 km/h (0 Bft) 0 min 0,0 km/h (0 Bft)
26.04.2010 05:18 19,0 C 10,7 C 0,0 UV-I 0,0 C 50 % 89 % 0 % 1023,2 hPa 0,0 l/m 0,0 km/h (0 Bft) 0 min 0,0 km/h (0 Bft)
26.04.2010 05:20 19,0 C 10,5 C 0,0 UV-I 0,0 C 50 % 89 % 0 % 1023,2 hPa 0,0 l/m 0,0 km/h (0 Bft) 0 min 0,0 km/h (0 Bft)
26.04.2010 05:22 19,0 C 10,5 C 0,0 UV-I 0,0 C 50 % 89 % 0 % 1023,2 hPa 0,0 l/m 0,0 km/h (0 Bft) 0 min 0,0 km/h (0 Bft)
26.04.2010 05:24 18,9 C 10,5 C 0,0 UV-I 0,0 C 50 % 89 % 0 % 1023,2 hPa 0,0 l/m 0,0 km/h (0 Bft) 0 min 0,0 km/h (0 Bft)
26.04.2010 05:26 18,9 C 10,4 C 0,0 UV-I 0,0 C 50 % 88 % 0 % 1023,2 hPa 0,0 l/m 0,0 km/h (0 Bft) 0 min 0,0 km/h (0 Bft)
26.04.2010 05:28 18,9 C 10,5 C 0,0 UV-I 0,0 C 50 % 89 % 0 % 1023,2 hPa 0,0 l/m 0,0 km/h (0 Bft) 0 min 0,0 km/h (0 Bft)
26.04.2010 05:30 18,9 C 10,4 C 0,0 UV-I 0,0 C 50 % 88 % 0 % 1023,2 hPa 0,0 l/m 0,0 km/h (0 Bft) 0 min 0,0 km/h (0 Bft)
26.04.2010 05:32 18,9 C 10,3 C 0,0 UV-I 0,0 C 50 % 88 % 0 % 1023,2 hPa 0,0 l/m 0,4 km/h (0 Bft) 0 min 0,0 km/h (0 Bft)
26.04.2010 05:34 18,9 C 10,3 C 0,0 UV-I 0,0 C 50 % 88 % 0 % 1023,2 hPa 0,0 l/m 0,4 km/h (0 Bft) 0 min 0,0 km/h (0 Bft)
26.04.2010 05:36 18,9 C 10,2 C 0,0 UV-I 0,0 C 50 % 88 % 0 % 1023,2 hPa 0,0 l/m 0,4 km/h (0 Bft) 0 min 0,0 km/h (0 Bft)
26.04.2010 05:38 18,8 C 10,3 C 0,0 UV-I 0,0 C 50 % 88 % 0 % 1023,2 hPa 0,0 l/m 0,4 km/h (0 Bft) 0 min 4,4 km/h (1 Bft)
26.04.2010 05:40 18,8 C 10,3 C 0,0 UV-I 0,0 C 50 % 88 % 0 % 1023,2 hPa 0,0 l/m 0,4 km/h (0 Bft) 0 min 0,0 km/h (0 Bft)
26.04.2010 05:42 18,8 C 10,2 C 0,0 UV-I 0,0 C 50 % 88 % 0 % 1023,2 hPa 0,0 l/m 0,8 km/h (0 Bft) 0 min 0,0 km/h (0 Bft)
26.04.2010 05:44 18,8 C 10,1 C 0,0 UV-I 0,0 C 50 % 88 % 0 % 1023,2 hPa 0,0 l/m 0,8 km/h (0 Bft) 0 min 0,0 km/h (0 Bft)
26.04.2010 05:46 18,8 C 10,0 C 0,0 UV-I 0,0 C 50 % 88 % 0 % 1023,2 hPa 0,0 l/m 0,8 km/h (0 Bft) 0 min 4,0 km/h (1 Bft)
26.04.2010 05:48 18,8 C 10,0 C 0,0 UV-I 0,0 C 50 % 88 % 0 % 1023,2 hPa 0,0 l/m 0,8 km/h (0 Bft) 0 min 0,0 km/h (0 Bft)
26.04.2010 05:50 18,8 C 10,0 C 0,0 UV-I 0,0 C 50 % 88 % 0 % 1023,2 hPa 0,0 l/m 0,8 km/h (0 Bft) 0 min 0,0 km/h (0 Bft)
26.04.2010 05:52 18,8 C 10,0 C 0,0 UV-I 0,0 C 50 % 88 % 0 % 1023,2 hPa 0,0 l/m 0,4 km/h (0 Bft) 0 min 0,0 km/h (0 Bft)
26.04.2010 05:54 18,8 C 9,9 C 0,0 UV-I 0,0 C 50 % 88 % 0 % 1023,2 hPa 0,0 l/m 0,4 km/h (0 Bft) 0 min 0,0 km/h (0 Bft)
26.04.2010 05:56 18,8 C 9,9 C 0,0 UV-I 0,0 C 50 % 88 % 0 % 1023,2 hPa 0,0 l/m 0,4 km/h (0 Bft) 0 min 0,0 km/h (0 Bft)
26.04.2010 05:58 18,8 C 9,9 C 0,0 UV-I 0,0 C 50 % 88 % 0 % 1023,2 hPa 0,0 l/m 0,4 km/h (0 Bft) 0 min 0,0 km/h (0 Bft)
26.04.2010 06:00 18,8 C 9,9 C 0,0 UV-I 0,0 C 50 % 89 % 0 % 1023,2 hPa 0,0 l/m 0,4 km/h (0 Bft) 0 min 0,0 km/h (0 Bft)
26.04.2010 06:02 18,8 C 9,9 C 0,0 UV-I 0,0 C 50 % 89 % 0 % 1023,2 hPa 0,0 l/m 0,4 km/h (0 Bft) 0 min 0,0 km/h (0 Bft)
26.04.2010 06:04 18,8 C 9,9 C 0,0 UV-I 0,0 C 50 % 89 % 0 % 1023,2 hPa 0,0 l/m 0,4 km/h (0 Bft) 0 min 0,0 km/h (0 Bft)
26.04.2010 06:06 18,8 C 9,9 C 0,0 UV-I 0,0 C 50 % 89 % 0 % 1023,2 hPa 0,0 l/m 0,4 km/h (0 Bft) 0 min 0,0 km/h (0 Bft)
26.04.2010 06:08 18,7 C 9,9 C 0,0 UV-I 0,0 C 50 % 89 % 0 % 1023,2 hPa 0,0 l/m 0,4 km/h (0 Bft) 0 min 0,0 km/h (0 Bft)
26.04.2010 06:10 18,8 C 9,9 C 0,0 UV-I 0,0 C 50 % 89 % 0 % 1023,2 hPa 0,0 l/m 0,4 km/h (0 Bft) 0 min 0,0 km/h (0 Bft)
26.04.2010 06:12 18,7 C 9,9 C 0,0 UV-I 0,0 C 50 % 89 % 0 % 1023,0 hPa 0,0 l/m 0,4 km/h (0 Bft) 0 min 0,0 km/h (0 Bft)
26.04.2010 06:14 18,7 C 9,7 C 0,0 UV-I 0,0 C 50 % 89 % 0 % 1023,0 hPa 0,0 l/m 0,4 km/h (0 Bft) 0 min 0,0 km/h (0 Bft)
26.04.2010 06:16 18,7 C 9,6 C 0,0 UV-I 0,0 C 50 % 89 % 0 % 1023,0 hPa 0,0 l/m 0,4 km/h (0 Bft) 0 min 0,0 km/h (0 Bft)
26.04.2010 06:18 18,7 C 9,6 C 0,0 UV-I 0,0 C 50 % 89 % 0 % 1023,0 hPa 0,0 l/m 0,4 km/h (0 Bft) 0 min 0,0 km/h (0 Bft)
26.04.2010 06:20 18,7 C 9,6 C 0,0 UV-I 0,0 C 50 % 89 % 0 % 1023,0 hPa 0,0 l/m 0,4 km/h (0 Bft) 0 min 0,0 km/h (0 Bft)
26.04.2010 06:22 18,7 C 9,6 C 0,0 UV-I 0,0 C 50 % 89 % 0 % 1023,0 hPa 0,0 l/m 0,4 km/h (0 Bft) 0 min 0,0 km/h (0 Bft)
26.04.2010 06:24 18,7 C 9,5 C 0,0 UV-I 0,0 C 50 % 89 % 0 % 1023,0 hPa 0,0 l/m 0,4 km/h (0 Bft) 0 min 0,0 km/h (0 Bft)
26.04.2010 06:26 18,6 C 9,5 C 0,0 UV-I 0,0 C 50 % 89 % 0 % 1023,0 hPa 0,0 l/m 0,4 km/h (0 Bft) 0 min 0,0 km/h (0 Bft)
26.04.2010 06:28 18,6 C 9,5 C 0,0 UV-I 0,0 C 50 % 89 % 0 % 1023,0 hPa 0,0 l/m 0,4 km/h (0 Bft) 0 min 0,0 km/h (0 Bft)
26.04.2010 06:30 18,6 C 9,5 C 0,0 UV-I 0,0 C 50 % 89 % 0 % 1023,0 hPa 0,0 l/m 0,4 km/h (0 Bft) 0 min 0,0 km/h (0 Bft)
26.04.2010 06:32 18,6 C 9,5 C 0,0 UV-I 0,0 C 50 % 89 % 0 % 1023,1 hPa 0,0 l/m 0,0 km/h (0 Bft) 0 min 0,0 km/h (0 Bft)
26.04.2010 06:34 18,6 C 9,5 C 0,0 UV-I 0,0 C 50 % 89 % 0 % 1023,1 hPa 0,0 l/m 0,0 km/h (0 Bft) 0 min 0,0 km/h (0 Bft)
26.04.2010 06:36 18,6 C 9,5 C 0,0 UV-I 0,0 C 50 % 89 % 0 % 1023,1 hPa 0,0 l/m 0,4 km/h (0 Bft) 0 min 0,0 km/h (0 Bft)
26.04.2010 06:38 18,6 C 9,5 C 0,0 UV-I 0,0 C 50 % 89 % 0 % 1023,1 hPa 0,0 l/m 0,4 km/h (0 Bft) 0 min 0,0 km/h (0 Bft)
26.04.2010 06:40 18,6 C 9,4 C 0,0 UV-I 0,0 C 50 % 89 % 0 % 1023,1 hPa 0,0 l/m 0,4 km/h (0 Bft) 0 min 0,0 km/h (0 Bft)
26.04.2010 06:44 18,6 C 9,3 C 0,0 UV-I 0,0 C 50 % 89 % 0 % 1023,1 hPa 0,0 l/m 0,8 km/h (0 Bft) 0 min 7,2 km/h (2 Bft)
26.04.2010 06:46 18,6 C 9,2 C 0,0 UV-I 0,0 C 50 % 89 % 0 % 1023,1 hPa 0,0 l/m 0,4 km/h (0 Bft) 0 min 0,0 km/h (0 Bft)
26.04.2010 06:48 18,6 C 9,2 C 0,0 UV-I 0,0 C 50 % 89 % 0 % 1023,1 hPa 0,0 l/m 0,4 km/h (0 Bft) 0 min 0,0 km/h (0 Bft)
26.04.2010 06:50 18,6 C 9,2 C 0,0 UV-I 0,0 C 50 % 89 % 0 % 1023,1 hPa 0,0 l/m 0,4 km/h (0 Bft) 0 min 0,0 km/h (0 Bft)
26.04.2010 06:52 18,6 C 9,2 C 0,0 UV-I 0,0 C 50 % 89 % 0 % 1022,9 hPa 0,0 l/m 0,4 km/h (0 Bft) 0 min 0,0 km/h (0 Bft)
26.04.2010 06:54 18,6 C 9,2 C 0,0 UV-I 0,0 C 50 % 89 % 0 % 1022,9 hPa 0,0 l/m 0,0 km/h (0 Bft) 0 min 0,0 km/h (0 Bft)
26.04.2010 06:56 18,6 C 9,2 C 0,0 UV-I 0,0 C 50 % 89 % 0 % 1022,9 hPa 0,0 l/m 0,0 km/h (0 Bft) 0 min 0,0 km/h (0 Bft)
26.04.2010 06:58 18,6 C 9,3 C 0,0 UV-I 0,0 C 50 % 90 % 0 % 1022,9 hPa 0,0 l/m 0,4 km/h (0 Bft) 0 min 5,6 km/h (1 Bft)
26.04.2010 07:00 18,5 C 9,3 C 0,0 UV-I 0,0 C 50 % 90 % 0 % 1022,9 hPa 0,0 l/m 0,8 km/h (0 Bft) 0 min 0,0 km/h (0 Bft)
26.04.2010 07:02 18,5 C 9,3 C 0,0 UV-I 0,0 C 50 % 90 % 0 % 1022,9 hPa 0,0 l/m 0,8 km/h (0 Bft) 0 min 0,0 km/h (0 Bft)
26.04.2010 07:04 18,5 C 9,2 C 0,0 UV-I 0,0 C 50 % 90 % 0 % 1022,9 hPa 0,0 l/m 1,2 km/h (1 Bft) 0 min 0,0 km/h (0 Bft)
26.04.2010 07:06 18,5 C 9,3 C 0,0 UV-I 0,0 C 50 % 90 % 0 % 1022,9 hPa 0,0 l/m 1,2 km/h (1 Bft) 0 min 0,0 km/h (0 Bft)
26.04.2010 07:08 18,5 C 9,3 C 0,0 UV-I 0,0 C 50 % 90 % 0 % 1022,9 hPa 0,0 l/m 1,2 km/h (1 Bft) 0 min 0,0 km/h (0 Bft)
26.04.2010 07:10 18,5 C 9,2 C 0,0 UV-I 0,0 C 50 % 90 % 0 % 1022,9 hPa 0,0 l/m 0,8 km/h (0 Bft) 0 min 0,0 km/h (0 Bft)
26.04.2010 07:12 18,5 C 9,3 C 0,0 UV-I 0,0 C 50 % 90 % 0 % 1023,6 hPa 0,0 l/m 0,4 km/h (0 Bft) 0 min 0,0 km/h (0 Bft)
26.04.2010 07:14 18,5 C 9,3 C 0,0 UV-I 0,0 C 50 % 90 % 0 % 1023,6 hPa 0,0 l/m 0,8 km/h (0 Bft) 0 min 0,0 km/h (0 Bft)
26.04.2010 07:18 18,5 C 9,4 C 0,0 UV-I 0,0 C 50 % 90 % 0 % 1023,6 hPa 0,0 l/m 1,2 km/h (1 Bft) 0 min 4,0 km/h (1 Bft)
26.04.2010 07:20 18,5 C 9,5 C 0,0 UV-I 0,0 C 51 % 90 % 0 % 1023,6 hPa 0,0 l/m 0,8 km/h (0 Bft) 0 min 0,0 km/h (0 Bft)
26.04.2010 07:22 18,5 C 9,5 C 0,0 UV-I 0,0 C 50 % 90 % 0 % 1023,6 hPa 0,0 l/m 1,2 km/h (1 Bft) 0 min 0,0 km/h (0 Bft)
26.04.2010 07:24 18,5 C 9,4 C 0,0 UV-I 0,0 C 51 % 90 % 0 % 1023,6 hPa 0,0 l/m 1,2 km/h (1 Bft) 0 min 0,0 km/h (0 Bft)
26.04.2010 07:26 18,5 C 9,5 C 0,0 UV-I 0,0 C 50 % 90 % 0 % 1023,6 hPa 0,0 l/m 1,2 km/h (1 Bft) 0 min 4,0 km/h (1 Bft)
26.04.2010 07:28 18,5 C 9,5 C 0,0 UV-I 0,0 C 50 % 90 % 0 % 1023,6 hPa 0,0 l/m 2,0 km/h (1 Bft) 0 min 5,6 km/h (1 Bft)
26.04.2010 07:30 18,5 C 9,5 C 0,0 UV-I 0,0 C 51 % 90 % 0 % 1023,6 hPa 0,0 l/m 2,4 km/h (1 Bft) 0 min 0,0 km/h (0 Bft)
26.04.2010 07:32 18,5 C 9,6 C 0,0 UV-I 0,0 C 51 % 90 % 0 % 1023,7 hPa 0,0 l/m 1,6 km/h (1 Bft) 0 min 0,0 km/h (0 Bft)
26.04.2010 07:34 18,5 C 9,7 C 0,0 UV-I 0,0 C 51 % 90 % 0 % 1023,7 hPa 0,0 l/m 2,0 km/h (1 Bft) 0 min 0,0 km/h (0 Bft)
26.04.2010 07:36 18,5 C 9,6 C 0,0 UV-I 0,1 C 51 % 90 % 3 % 1023,7 hPa 0,0 l/m 2,0 km/h (1 Bft) 0 min 0,0 km/h (0 Bft)
26.04.2010 07:38 18,5 C 9,6 C 0,0 UV-I 0,1 C 51 % 90 % 3 % 1023,7 hPa 0,0 l/m 1,6 km/h (1 Bft) 0 min 0,0 km/h (0 Bft)
26.04.2010 07:40 18,5 C 9,7 C 0,0 UV-I 0,1 C 51 % 90 % 3 % 1023,7 hPa 0,0 l/m 2,0 km/h (1 Bft) 0 min 4,0 km/h (1 Bft)
26.04.2010 07:42 18,5 C 9,6 C 0,0 UV-I 0,2 C 51 % 90 % 6 % 1023,7 hPa 0,0 l/m 2,0 km/h (1 Bft) 0 min 6,4 km/h (2 Bft)
26.04.2010 07:44 18,5 C 9,7 C 0,0 UV-I 0,2 C 51 % 91 % 6 % 1023,7 hPa 0,0 l/m 2,8 km/h (1 Bft) 0 min 7,2 km/h (2 Bft)
26.04.2010 07:46 18,5 C 9,8 C 0,0 UV-I 0,2 C 51 % 90 % 6 % 1023,7 hPa 0,0 l/m 3,2 km/h (1 Bft) 0 min 7,6 km/h (2 Bft)
26.04.2010 07:48 18,5 C 9,9 C 0,0 UV-I 0,1 C 51 % 90 % 3 % 1023,7 hPa 0,0 l/m 4,0 km/h (1 Bft) 0 min 6,4 km/h (2 Bft)
26.04.2010 07:50 18,5 C 9,9 C 0,0 UV-I 0,1 C 51 % 90 % 3 % 1023,7 hPa 0,0 l/m 3,6 km/h (1 Bft) 0 min 4,0 km/h (1 Bft)
26.04.2010 07:54 18,5 C 9,9 C 0,0 UV-I 0,2 C 51 % 90 % 6 % 1024,4 hPa 0,0 l/m 3,6 km/h (1 Bft) 0 min 9,6 km/h (2 Bft)
26.04.2010 07:56 18,5 C 9,9 C 0,1 UV-I 0,3 C 51 % 90 % 9 % 1024,4 hPa 0,0 l/m 2,4 km/h (1 Bft) 0 min 6,4 km/h (2 Bft)
26.04.2010 07:58 18,5 C 9,9 C 0,1 UV-I 0,3 C 51 % 90 % 9 % 1024,4 hPa 0,0 l/m 2,0 km/h (1 Bft) 0 min 4,4 km/h (1 Bft)
26.04.2010 08:00 18,5 C 10,0 C 0,1 UV-I 0,2 C 51 % 91 % 6 % 1024,4 hPa 0,0 l/m 1,6 km/h (1 Bft) 0 min 4,0 km/h (1 Bft)
26.04.2010 08:02 18,5 C 10,0 C 0,1 UV-I 0,3 C 51 % 91 % 9 % 1024,4 hPa 0,0 l/m 1,6 km/h (1 Bft) 0 min 0,0 km/h (0 Bft)
26.04.2010 08:04 18,5 C 10,1 C 0,1 UV-I 0,2 C 51 % 91 % 6 % 1024,4 hPa 0,0 l/m 1,6 km/h (1 Bft) 0 min 6,8 km/h (2 Bft)
26.04.2010 08:06 18,5 C 10,0 C 0,0 UV-I 0,5 C 51 % 91 % 14 % 1024,4 hPa 0,0 l/m 1,2 km/h (1 Bft) 0 min 0,0 km/h (0 Bft)
26.04.2010 08:08 18,5 C 10,0 C 0,0 UV-I 0,6 C 51 % 91 % 17 % 1024,4 hPa 0,0 l/m 1,6 km/h (1 Bft) 0 min 4,8 km/h (1 Bft)
26.04.2010 08:10 18,5 C 10,1 C 0,3 UV-I 0,7 C 51 % 91 % 20 % 1024,4 hPa 0,0 l/m 2,0 km/h (1 Bft) 0 min 13,3 km/h (3 Bft)
26.04.2010 08:12 18,5 C 10,1 C 0,3 UV-I 0,8 C 51 % 91 % 23 % 1024,1 hPa 0,0 l/m 2,8 km/h (1 Bft) 0 min 4,4 km/h (1 Bft)
26.04.2010 08:14 18,5 C 10,2 C 0,3 UV-I 0,7 C 51 % 91 % 20 % 1024,1 hPa 0,0 l/m 3,2 km/h (1 Bft) 0 min 5,2 km/h (1 Bft)
26.04.2010 08:16 18,5 C 10,3 C 0,3 UV-I 0,7 C 51 % 91 % 20 % 1024,1 hPa 0,0 l/m 3,6 km/h (1 Bft) 0 min 6,8 km/h (2 Bft)
26.04.2010 08:18 18,5 C 10,3 C 0,3 UV-I 0,8 C 51 % 91 % 23 % 1024,1 hPa 0,0 l/m 3,2 km/h (1 Bft) 0 min 5,2 km/h (1 Bft)
26.04.2010 08:20 18,5 C 10,3 C 0,3 UV-I 0,8 C 51 % 91 % 23 % 1024,1 hPa 0,0 l/m 3,2 km/h (1 Bft) 0 min 0,0 km/h (0 Bft)
26.04.2010 08:22 18,6 C 10,3 C 0,3 UV-I 0,8 C 51 % 90 % 23 % 1024,1 hPa 0,0 l/m 2,8 km/h (1 Bft) 0 min 5,6 km/h (1 Bft)
26.04.2010 08:24 18,5 C 10,4 C 0,3 UV-I 0,7 C 51 % 90 % 20 % 1024,1 hPa 0,0 l/m 2,4 km/h (1 Bft) 0 min 6,4 km/h (2 Bft)
26.04.2010 08:26 18,6 C 10,4 C 0,1 UV-I 0,7 C 51 % 90 % 20 % 1024,1 hPa 0,0 l/m 2,0 km/h (1 Bft) 0 min 0,0 km/h (0 Bft)
26.04.2010 08:28 18,5 C 10,5 C 0,1 UV-I 0,6 C 51 % 90 % 17 % 1024,1 hPa 0,0 l/m 2,0 km/h (1 Bft) 0 min 8,8 km/h (2 Bft)
26.04.2010 08:32 18,6 C 10,4 C 0,1 UV-I 0,7 C 51 % 90 % 20 % 1024,2 hPa 0,0 l/m 3,6 km/h (1 Bft) 0 min 11,6 km/h (2 Bft)
26.04.2010 08:34 18,6 C 10,4 C 0,1 UV-I 0,7 C 51 % 90 % 20 % 1024,2 hPa 0,0 l/m 4,4 km/h (1 Bft) 0 min 9,2 km/h (2 Bft)
26.04.2010 08:36 18,6 C 10,5 C 0,5 UV-I 0,6 C 51 % 90 % 17 % 1024,2 hPa 0,0 l/m 5,2 km/h (1 Bft) 0 min 12,4 km/h (3 Bft)
26.04.2010 08:38 18,6 C 10,4 C 0,5 UV-I 0,9 C 51 % 90 % 26 % 1024,2 hPa 0,0 l/m 6,0 km/h (2 Bft) 0 min 9,2 km/h (2 Bft)
26.04.2010 08:40 18,6 C 10,5 C 1,0 UV-I 0,9 C 51 % 90 % 26 % 1024,2 hPa 0,0 l/m 6,0 km/h (2 Bft) 0 min 10,0 km/h (2 Bft)
26.04.2010 08:42 18,6 C 10,7 C 1,0 UV-I 0,9 C 51 % 90 % 26 % 1024,2 hPa 0,0 l/m 5,2 km/h (1 Bft) 0 min 10,8 km/h (2 Bft)
26.04.2010 08:44 18,6 C 10,6 C 1,0 UV-I 1,1 C 51 % 90 % 31 % 1024,2 hPa 0,0 l/m 5,6 km/h (1 Bft) 0 min 12,8 km/h (3 Bft)
26.04.2010 08:46 18,6 C 10,7 C 0,9 UV-I 1,1 C 51 % 90 % 31 % 1024,2 hPa 0,0 l/m 5,6 km/h (1 Bft) 0 min 11,2 km/h (2 Bft)
26.04.2010 08:48 18,6 C 10,7 C 0,9 UV-I 1,1 C 51 % 90 % 31 % 1024,2 hPa 0,0 l/m 5,6 km/h (1 Bft) 0 min 11,2 km/h (2 Bft)
26.04.2010 08:50 18,6 C 10,7 C 0,6 UV-I 1,1 C 51 % 90 % 31 % 1024,2 hPa 0,0 l/m 6,0 km/h (2 Bft) 0 min 16,1 km/h (3 Bft)
26.04.2010 08:52 18,6 C 10,8 C 0,6 UV-I 0,9 C 51 % 89 % 26 % 1024,6 hPa 0,0 l/m 7,2 km/h (2 Bft) 0 min 13,7 km/h (3 Bft)
26.04.2010 08:56 18,6 C 10,9 C 0,5 UV-I 0,8 C 51 % 89 % 23 % 1024,6 hPa 0,0 l/m 6,8 km/h (2 Bft) 0 min 11,6 km/h (2 Bft)
26.04.2010 08:58 18,7 C 10,8 C 0,5 UV-I 0,8 C 51 % 89 % 23 % 1024,6 hPa 0,0 l/m 6,4 km/h (2 Bft) 0 min 8,4 km/h (2 Bft)
26.04.2010 09:00 18,6 C 10,8 C 0,6 UV-I 0,8 C 51 % 89 % 23 % 1024,6 hPa 0,0 l/m 6,4 km/h (2 Bft) 0 min 16,5 km/h (3 Bft)
26.04.2010 09:02 18,7 C 10,8 C 0,6 UV-I 0,8 C 51 % 89 % 23 % 1024,6 hPa 0,0 l/m 5,2 km/h (1 Bft) 0 min 10,4 km/h (2 Bft)
26.04.2010 09:04 18,7 C 10,9 C 0,6 UV-I 0,7 C 51 % 89 % 20 % 1024,6 hPa 0,0 l/m 4,8 km/h (1 Bft) 0 min 5,2 km/h (1 Bft)
26.04.2010 09:06 18,7 C 10,9 C 0,9 UV-I 0,8 C 51 % 89 % 23 % 1024,6 hPa 0,0 l/m 4,8 km/h (1 Bft) 0 min 16,1 km/h (3 Bft)
26.04.2010 09:08 18,7 C 10,9 C 0,9 UV-I 0,9 C 51 % 89 % 26 % 1024,6 hPa 0,0 l/m 5,2 km/h (1 Bft) 0 min 10,4 km/h (2 Bft)
26.04.2010 09:10 18,7 C 11,0 C 1,5 UV-I 1,0 C 51 % 89 % 29 % 1024,6 hPa 0,0 l/m 5,2 km/h (1 Bft) 0 min 6,4 km/h (2 Bft)
26.04.2010 09:12 18,7 C 11,1 C 1,5 UV-I 1,2 C 51 % 89 % 34 % 1024,6 hPa 0,0 l/m 5,2 km/h (1 Bft) 0 min 8,0 km/h (2 Bft)
26.04.2010 09:14 18,7 C 11,1 C 1,5 UV-I 1,5 C 51 % 89 % 43 % 1024,6 hPa 0,0 l/m 5,6 km/h (1 Bft) 0 min 4,8 km/h (1 Bft)
26.04.2010 09:16 18,7 C 11,2 C 1,6 UV-I 1,8 C 51 % 89 % 51 % 1024,6 hPa 0,0 l/m 6,0 km/h (2 Bft) 0 min 12,0 km/h (2 Bft)
26.04.2010 09:18 18,8 C 11,2 C 1,6 UV-I 1,9 C 51 % 89 % 54 % 1024,6 hPa 0,0 l/m 5,6 km/h (1 Bft) 0 min 5,2 km/h (1 Bft)
26.04.2010 09:20 18,8 C 11,3 C 1,2 UV-I 1,8 C 51 % 89 % 51 % 1024,6 hPa 0,0 l/m 5,6 km/h (1 Bft) 0 min 9,2 km/h (2 Bft)
26.04.2010 09:22 18,8 C 11,3 C 1,2 UV-I 1,8 C 51 % 89 % 51 % 1024,6 hPa 0,0 l/m 6,0 km/h (2 Bft) 0 min 10,8 km/h (2 Bft)
26.04.2010 09:24 18,8 C 11,4 C 1,2 UV-I 1,5 C 51 % 88 % 43 % 1024,6 hPa 0,0 l/m 6,0 km/h (2 Bft) 0 min 8,8 km/h (2 Bft)
26.04.2010 09:26 18,8 C 11,5 C 0,9 UV-I 1,3 C 51 % 88 % 37 % 1024,6 hPa 0,0 l/m 5,6 km/h (1 Bft) 0 min 4,4 km/h (1 Bft)
26.04.2010 09:28 18,8 C 11,5 C 0,9 UV-I 1,3 C 51 % 88 % 37 % 1024,6 hPa 0,0 l/m 5,6 km/h (1 Bft) 0 min 0,0 km/h (0 Bft)
26.04.2010 09:30 18,8 C 11,4 C 0,6 UV-I 1,3 C 51 % 88 % 37 % 1024,6 hPa 0,0 l/m 4,8 km/h (1 Bft) 0 min 7,2 km/h (2 Bft)
26.04.2010 09:32 18,8 C 11,5 C 0,6 UV-I 1,1 C 51 % 88 % 31 % 1024,2 hPa 0,0 l/m 4,8 km/h (1 Bft) 0 min 6,0 km/h (2 Bft)
26.04.2010 09:34 18,8 C 11,4 C 0,6 UV-I 1,2 C 51 % 88 % 34 % 1024,2 hPa 0,0 l/m 4,8 km/h (1 Bft) 0 min 12,0 km/h (2 Bft)
26.04.2010 09:36 18,8 C 11,4 C 0,7 UV-I 1,0 C 51 % 88 % 29 % 1024,2 hPa 0,0 l/m 4,4 km/h (1 Bft) 0 min 4,8 km/h (1 Bft)
26.04.2010 09:38 18,8 C 11,4 C 0,7 UV-I 1,0 C 51 % 88 % 29 % 1024,2 hPa 0,0 l/m 4,8 km/h (1 Bft) 0 min 9,2 km/h (2 Bft)
26.04.2010 09:40 18,8 C 11,5 C 1,2 UV-I 1,1 C 51 % 88 % 31 % 1024,2 hPa 0,0 l/m 5,6 km/h (1 Bft) 0 min 10,0 km/h (2 Bft)
26.04.2010 09:42 18,8 C 11,5 C 1,2 UV-I 1,1 C 51 % 88 % 31 % 1024,2 hPa 0,0 l/m 5,6 km/h (1 Bft) 0 min 20,9 km/h (4 Bft)
26.04.2010 09:46 18,9 C 11,6 C 1,0 UV-I 1,0 C 51 % 88 % 29 % 1024,2 hPa 0,0 l/m 6,0 km/h (2 Bft) 0 min 9,2 km/h (2 Bft)
26.04.2010 09:48 18,9 C 11,6 C 1,0 UV-I 1,1 C 51 % 88 % 31 % 1024,2 hPa 0,0 l/m 5,6 km/h (1 Bft) 0 min 7,6 km/h (2 Bft)
26.04.2010 09:50 18,9 C 11,7 C 0,9 UV-I 1,0 C 51 % 88 % 29 % 1024,2 hPa 0,0 l/m 5,6 km/h (1 Bft) 0 min 23,3 km/h (4 Bft)
26.04.2010 09:52 18,9 C 11,7 C 0,9 UV-I 1,0 C 51 % 87 % 29 % 1024,6 hPa 0,0 l/m 5,6 km/h (1 Bft) 0 min 20,1 km/h (4 Bft)
26.04.2010 09:54 18,9 C 11,7 C 0,9 UV-I 1,0 C 51 % 87 % 29 % 1024,6 hPa 0,0 l/m 5,2 km/h (1 Bft) 0 min 18,9 km/h (3 Bft)
26.04.2010 09:56 18,9 C 11,7 C 1,0 UV-I 1,1 C 51 % 87 % 31 % 1024,6 hPa 0,0 l/m 5,2 km/h (1 Bft) 0 min 8,8 km/h (2 Bft)
26.04.2010 09:58 18,9 C 11,8 C 1,0 UV-I 1,2 C 51 % 87 % 34 % 1024,6 hPa 0,0 l/m 5,2 km/h (1 Bft) 0 min 8,4 km/h (2 Bft)
26.04.2010 10:00 19,0 C 11,9 C 1,1 UV-I 1,2 C 51 % 87 % 34 % 1024,6 hPa 0,0 l/m 6,4 km/h (2 Bft) 0 min 10,8 km/h (2 Bft)
26.04.2010 10:02 19,0 C 11,9 C 1,1 UV-I 1,3 C 51 % 87 % 37 % 1024,6 hPa 0,0 l/m 7,2 km/h (2 Bft) 0 min 9,6 km/h (2 Bft)
26.04.2010 10:04 18,9 C 12,0 C 1,1 UV-I 1,2 C 51 % 87 % 34 % 1024,6 hPa 0,0 l/m 7,2 km/h (2 Bft) 0 min 7,6 km/h (2 Bft)
26.04.2010 10:06 19,0 C 12,1 C 0,9 UV-I 1,1 C 51 % 87 % 31 % 1024,6 hPa 0,0 l/m 6,8 km/h (2 Bft) 0 min 5,2 km/h (1 Bft)
26.04.2010 10:08 19,0 C 12,1 C 0,9 UV-I 1,1 C 51 % 87 % 31 % 1024,6 hPa 0,0 l/m 6,4 km/h (2 Bft) 0 min 10,0 km/h (2 Bft)
26.04.2010 10:10 19,0 C 12,0 C 0,8 UV-I 1,2 C 51 % 87 % 34 % 1024,6 hPa 0,0 l/m 6,8 km/h (2 Bft) 0 min 13,3 km/h (3 Bft)
26.04.2010 10:12 19,0 C 12,0 C 0,8 UV-I 1,2 C 51 % 87 % 34 % 1025,1 hPa 0,0 l/m 5,6 km/h (1 Bft) 0 min 6,4 km/h (2 Bft)
26.04.2010 10:14 19,0 C 12,1 C 0,8 UV-I 1,1 C 51 % 87 % 31 % 1025,1 hPa 0,0 l/m 4,8 km/h (1 Bft) 0 min 6,4 km/h (2 Bft)
26.04.2010 10:16 19,0 C 12,1 C 1,0 UV-I 1,2 C 51 % 87 % 34 % 1025,1 hPa 0,0 l/m 4,8 km/h (1 Bft) 0 min 6,8 km/h (2 Bft)
26.04.2010 10:18 19,0 C 12,1 C 1,0 UV-I 1,3 C 51 % 87 % 37 % 1025,1 hPa 0,0 l/m 5,2 km/h (1 Bft) 0 min 16,5 km/h (3 Bft)
26.04.2010 10:20 19,0 C 12,2 C 1,4 UV-I 1,3 C 51 % 86 % 37 % 1025,1 hPa 0,0 l/m 5,6 km/h (1 Bft) 0 min 9,6 km/h (2 Bft)
26.04.2010 10:22 19,1 C 12,3 C 1,4 UV-I 1,2 C 51 % 86 % 34 % 1025,1 hPa 0,0 l/m 5,2 km/h (1 Bft) 0 min 8,0 km/h (2 Bft)
26.04.2010 10:24 19,1 C 12,3 C 1,4 UV-I 1,3 C 51 % 86 % 37 % 1025,1 hPa 0,0 l/m 5,6 km/h (1 Bft) 0 min 15,7 km/h (3 Bft)
26.04.2010 10:26 19,1 C 12,3 C 0,8 UV-I 1,2 C 51 % 86 % 34 % 1025,1 hPa 0,0 l/m 6,0 km/h (2 Bft) 0 min 8,4 km/h (2 Bft)
26.04.2010 10:30 19,1 C 12,3 C 0,7 UV-I 1,2 C 51 % 86 % 34 % 1025,1 hPa 0,0 l/m 4,8 km/h (1 Bft) 0 min 8,8 km/h (2 Bft)
26.04.2010 10:32 19,1 C 12,4 C 0,7 UV-I 1,0 C 51 % 86 % 29 % 1025,1 hPa 0,0 l/m 4,8 km/h (1 Bft) 0 min 7,2 km/h (2 Bft)
26.04.2010 10:36 19,1 C 12,4 C 0,8 UV-I 0,9 C 51 % 86 % 26 % 1025,1 hPa 0,0 l/m 5,2 km/h (1 Bft) 0 min 6,8 km/h (2 Bft)
26.04.2010 10:40 19,1 C 12,4 C 1,5 UV-I 1,1 C 51 % 85 % 31 % 1025,1 hPa 0,0 l/m 6,0 km/h (2 Bft) 0 min 8,0 km/h (2 Bft)
26.04.2010 10:42 19,1 C 12,4 C 1,5 UV-I 1,2 C 51 % 86 % 34 % 1025,1 hPa 0,0 l/m 6,4 km/h (2 Bft) 0 min 13,3 km/h (3 Bft)
26.04.2010 10:44 19,1 C 12,4 C 1,5 UV-I 1,3 C 51 % 85 % 37 % 1025,1 hPa 0,0 l/m 7,2 km/h (2 Bft) 0 min 27,3 km/h (4 Bft)
26.04.2010 10:48 19,1 C 12,5 C 1,4 UV-I 1,2 C 51 % 85 % 34 % 1025,1 hPa 0,0 l/m 9,2 km/h (2 Bft) 0 min 17,7 km/h (3 Bft)
26.04.2010 10:52 19,2 C 12,5 C 1,3 UV-I 1,2 C 51 % 85 % 34 % 1025,2 hPa 0,0 l/m 9,6 km/h (2 Bft) 0 min 31,3 km/h (5 Bft)
26.04.2010 10:54 19,2 C 12,5 C 1,3 UV-I 1,2 C 51 % 85 % 34 % 1025,2 hPa 0,0 l/m 8,8 km/h (2 Bft) 0 min 10,4 km/h (2 Bft)
26.04.2010 10:56 19,2 C 12,6 C 1,2 UV-I 1,1 C 51 % 85 % 31 % 1025,2 hPa 0,0 l/m 8,4 km/h (2 Bft) 0 min 13,3 km/h (3 Bft)
26.04.2010 10:58 19,2 C 12,7 C 1,2 UV-I 1,0 C 51 % 84 % 29 % 1025,2 hPa 0,0 l/m 7,6 km/h (2 Bft) 0 min 10,8 km/h (2 Bft)
26.04.2010 11:00 19,2 C 12,6 C 1,8 UV-I 1,1 C 51 % 85 % 31 % 1025,2 hPa 0,0 l/m 6,8 km/h (2 Bft) 0 min 4,0 km/h (1 Bft)
26.04.2010 11:02 19,2 C 12,7 C 1,8 UV-I 1,1 C 51 % 84 % 31 % 1025,2 hPa 0,0 l/m 7,2 km/h (2 Bft) 0 min 11,2 km/h (2 Bft)
26.04.2010 11:04 19,2 C 12,7 C 1,8 UV-I 1,1 C 51 % 84 % 31 % 1025,2 hPa 0,0 l/m 7,6 km/h (2 Bft) 0 min 7,6 km/h (2 Bft)
26.04.2010 11:08 19,2 C 12,8 C 2,0 UV-I 1,3 C 51 % 84 % 37 % 1025,2 hPa 0,0 l/m 7,6 km/h (2 Bft) 0 min 18,9 km/h (3 Bft)
26.04.2010 11:12 19,2 C 12,8 C 2,0 UV-I 1,4 C 51 % 84 % 40 % 1024,9 hPa 0,0 l/m 7,6 km/h (2 Bft) 0 min 6,8 km/h (2 Bft)
26.04.2010 11:14 19,2 C 12,8 C 2,0 UV-I 1,3 C 51 % 84 % 37 % 1024,9 hPa 0,0 l/m 6,4 km/h (2 Bft) 0 min 10,4 km/h (2 Bft)
26.04.2010 11:16 19,2 C 12,8 C 1,4 UV-I 1,3 C 51 % 84 % 37 % 1024,9 hPa 0,0 l/m 6,8 km/h (2 Bft) 0 min 10,8 km/h (2 Bft)
26.04.2010 11:18 19,2 C 12,8 C 1,4 UV-I 1,3 C 51 % 84 % 37 % 1024,9 hPa 0,0 l/m 5,6 km/h (1 Bft) 0 min 5,6 km/h (1 Bft)
26.04.2010 11:20 19,3 C 12,9 C 1,7 UV-I 1,3 C 51 % 84 % 37 % 1024,9 hPa 0,0 l/m 5,6 km/h (1 Bft) 0 min 6,8 km/h (2 Bft)
26.04.2010 11:22 19,2 C 12,9 C 1,7 UV-I 1,4 C 51 % 84 % 40 % 1024,9 hPa 0,0 l/m 5,2 km/h (1 Bft) 0 min 6,0 km/h (2 Bft)
26.04.2010 11:24 19,3 C 13,0 C 1,7 UV-I 1,5 C 51 % 84 % 43 % 1024,9 hPa 0,0 l/m 4,8 km/h (1 Bft) 0 min 0,0 km/h (0 Bft)
26.04.2010 11:26 19,3 C 13,1 C 1,5 UV-I 1,5 C 51 % 84 % 43 % 1024,9 hPa 0,0 l/m 4,8 km/h (1 Bft) 0 min 19,7 km/h (3 Bft)
26.04.2010 11:28 19,3 C 13,1 C 1,5 UV-I 1,7 C 51 % 84 % 49 % 1024,9 hPa 0,0 l/m 4,8 km/h (1 Bft) 0 min 9,2 km/h (2 Bft)
26.04.2010 11:30 19,3 C 13,1 C 1,8 UV-I 1,8 C 51 % 84 % 51 % 1024,9 hPa 0,0 l/m 5,2 km/h (1 Bft) 0 min 4,4 km/h (1 Bft)
26.04.2010 11:32 19,2 C 13,2 C 1,8 UV-I 1,8 C 51 % 83 % 51 % 1025,7 hPa 0,0 l/m 5,2 km/h (1 Bft) 0 min 6,0 km/h (2 Bft)
26.04.2010 11:34 19,2 C 13,2 C 1,8 UV-I 1,9 C 51 % 83 % 54 % 1025,7 hPa 0,0 l/m 5,6 km/h (1 Bft) 0 min 5,6 km/h (1 Bft)
26.04.2010 11:36 19,2 C 13,2 C 3,0 UV-I 2,1 C 51 % 83 % 60 % 1025,7 hPa 0,0 l/m 6,4 km/h (2 Bft) 0 min 10,8 km/h (2 Bft)
26.04.2010 11:38 19,4 C 13,3 C 3,0 UV-I 2,2 C 51 % 83 % 63 % 1025,7 hPa 0,0 l/m 6,8 km/h (2 Bft) 0 min 12,4 km/h (3 Bft)
26.04.2010 11:40 19,4 C 13,3 C 2,7 UV-I 2,2 C 51 % 83 % 63 % 1025,7 hPa 0,0 l/m 6,8 km/h (2 Bft) 0 min 8,0 km/h (2 Bft)
26.04.2010 11:44 19,4 C 13,5 C 2,7 UV-I 2,2 C 51 % 83 % 63 % 1025,7 hPa 0,0 l/m 6,8 km/h (2 Bft) 0 min 9,6 km/h (2 Bft)
26.04.2010 11:46 19,4 C 13,5 C 1,7 UV-I 2,1 C 51 % 83 % 60 % 1025,7 hPa 0,0 l/m 6,4 km/h (2 Bft) 0 min 9,2 km/h (2 Bft)
26.04.2010 11:50 19,4 C 13,5 C 1,5 UV-I 2,0 C 51 % 82 % 57 % 1025,7 hPa 0,0 l/m 5,6 km/h (1 Bft) 0 min 14,9 km/h (3 Bft)
26.04.2010 11:52 19,4 C 13,6 C 1,5 UV-I 1,7 C 51 % 82 % 49 % 1025,7 hPa 0,0 l/m 5,6 km/h (1 Bft) 0 min 7,6 km/h (2 Bft)
26.04.2010 11:54 19,4 C 13,5 C 1,5 UV-I 1,7 C 51 % 82 % 49 % 1025,7 hPa 0,0 l/m 5,6 km/h (1 Bft) 0 min 9,2 km/h (2 Bft)
26.04.2010 11:56 19,4 C 13,6 C 1,4 UV-I 1,5 C 51 % 82 % 43 % 1025,7 hPa 0,0 l/m 6,4 km/h (2 Bft) 0 min 6,8 km/h (2 Bft)
26.04.2010 11:58 19,5 C 13,7 C 1,4 UV-I 1,5 C 51 % 82 % 43 % 1025,7 hPa 0,0 l/m 6,0 km/h (2 Bft) 0 min 6,0 km/h (2 Bft)
26.04.2010 12:00 19,5 C 13,6 C 3,0 UV-I 1,7 C 51 % 82 % 49 % 1025,7 hPa 0,0 l/m 6,0 km/h (2 Bft) 0 min 6,8 km/h (2 Bft)
26.04.2010 12:04 19,5 C 13,7 C 3,0 UV-I 2,0 C 51 % 82 % 57 % 1025,7 hPa 0,0 l/m 5,6 km/h (1 Bft) 0 min 5,6 km/h (1 Bft)
26.04.2010 12:08 19,5 C 13,9 C 3,0 UV-I 2,1 C 51 % 81 % 60 % 1025,7 hPa 0,0 l/m 7,6 km/h (2 Bft) 0 min 15,3 km/h (3 Bft)
26.04.2010 12:10 19,6 C 13,9 C 2,0 UV-I 2,1 C 51 % 81 % 60 % 1025,7 hPa 0,0 l/m 7,2 km/h (2 Bft) 0 min 7,2 km/h (2 Bft)
26.04.2010 12:12 19,6 C 13,9 C 2,0 UV-I 2,0 C 51 % 81 % 57 % 1025,9 hPa 0,0 l/m 8,0 km/h (2 Bft) 0 min 10,4 km/h (2 Bft)
26.04.2010 12:18 19,6 C 14,0 C 1,2 UV-I 1,6 C 51 % 81 % 46 % 1025,9 hPa 0,0 l/m 6,0 km/h (2 Bft) 0 min 8,8 km/h (2 Bft)
26.04.2010 12:22 19,6 C 14,0 C 1,3 UV-I 1,5 C 50 % 81 % 43 % 1025,9 hPa 0,0 l/m 4,8 km/h (1 Bft) 0 min 6,8 km/h (2 Bft)
26.04.2010 12:24 19,6 C 14,1 C 1,3 UV-I 1,5 C 50 % 81 % 43 % 1025,9 hPa 0,0 l/m 4,0 km/h (1 Bft) 0 min 4,0 km/h (1 Bft)
26.04.2010 12:26 19,6 C 14,3 C 2,3 UV-I 1,5 C 50 % 81 % 43 % 1025,9 hPa 0,0 l/m 4,0 km/h (1 Bft) 0 min 8,8 km/h (2 Bft)
26.04.2010 12:38 19,6 C 14,6 C 3,8 UV-I 2,9 C 50 % 79 % 83 % 1025,8 hPa 0,0 l/m 5,2 km/h (1 Bft) 2 min 9,2 km/h (2 Bft)
26.04.2010 12:42 19,7 C 14,8 C 2,0 UV-I 2,6 C 50 % 79 % 74 % 1025,8 hPa 0,0 l/m 5,2 km/h (1 Bft) 0 min 17,3 km/h (3 Bft)
26.04.2010 12:44 19,7 C 14,8 C 2,0 UV-I 2,6 C 50 % 79 % 74 % 1025,8 hPa 0,0 l/m 4,8 km/h (1 Bft) 0 min 0,0 km/h (0 Bft)
26.04.2010 12:48 19,7 C 14,9 C 1,9 UV-I 2,4 C 50 % 78 % 69 % 1025,8 hPa 0,0 l/m 5,2 km/h (1 Bft) 0 min 9,2 km/h (2 Bft)
26.04.2010 12:52 19,7 C 15,0 C 1,7 UV-I 2,2 C 50 % 78 % 63 % 1025,9 hPa 0,0 l/m 5,6 km/h (1 Bft) 0 min 13,7 km/h (3 Bft)
26.04.2010 12:56 19,8 C 15,1 C 1,8 UV-I 2,3 C 50 % 77 % 66 % 1025,9 hPa 0,0 l/m 6,0 km/h (2 Bft) 0 min 0,0 km/h (0 Bft)
26.04.2010 12:58 19,8 C 15,1 C 1,8 UV-I 2,4 C 50 % 78 % 69 % 1025,9 hPa 0,0 l/m 5,6 km/h (1 Bft) 0 min 8,0 km/h (2 Bft)
26.04.2010 13:03 19,8 C 15,4 C 2,5 UV-I 2,4 C 50 % 77 % 69 % 1025,9 hPa 0,0 l/m 4,8 km/h (1 Bft) 0 min 17,7 km/h (3 Bft)
26.04.2010 13:06 19,8 C 15,5 C 2,1 UV-I 2,3 C 50 % 76 % 66 % 1025,9 hPa 0,0 l/m 4,8 km/h (1 Bft) 0 min 7,2 km/h (2 Bft)
26.04.2010 13:08 19,8 C 15,5 C 2,1 UV-I 2,3 C 50 % 76 % 66 % 1025,9 hPa 0,0 l/m 6,0 km/h (2 Bft) 0 min 6,0 km/h (2 Bft)
26.04.2010 13:10 19,8 C 15,5 C 3,2 UV-I 2,4 C 50 % 76 % 69 % 1025,9 hPa 0,0 l/m 6,4 km/h (2 Bft) 0 min 6,4 km/h (2 Bft)
26.04.2010 13:12 19,8 C 15,5 C 3,2 UV-I 2,4 C 50 % 76 % 69 % 1025,7 hPa 0,0 l/m 7,2 km/h (2 Bft) 0 min 12,0 km/h (2 Bft)
26.04.2010 13:14 19,8 C 15,6 C 3,2 UV-I 2,4 C 50 % 75 % 69 % 1025,7 hPa 0,0 l/m 8,4 km/h (2 Bft) 0 min 9,6 km/h (2 Bft)
26.04.2010 13:16 19,8 C 15,6 C 6,4 UV-I 2,8 C 50 % 76 % 80 % 1025,7 hPa 0,0 l/m 8,0 km/h (2 Bft) 0 min 8,4 km/h (2 Bft)
26.04.2010 13:18 19,8 C 15,7 C 6,4 UV-I 3,8 C 50 % 76 % 100 % 1025,7 hPa 0,0 l/m 8,8 km/h (2 Bft) 2 min 9,2 km/h (2 Bft)
26.04.2010 13:20 19,9 C 15,9 C 6,6 UV-I 4,2 C 50 % 75 % 100 % 1025,7 hPa 0,0 l/m 9,2 km/h (2 Bft) 2 min 10,0 km/h (2 Bft)
26.04.2010 13:22 19,9 C 16,1 C 6,6 UV-I 4,1 C 50 % 74 % 100 % 1025,7 hPa 0,0 l/m 8,8 km/h (2 Bft) 2 min 14,9 km/h (3 Bft)
26.04.2010 13:24 20,0 C 16,2 C 6,6 UV-I 4,3 C 50 % 73 % 100 % 1025,7 hPa 0,0 l/m 8,8 km/h (2 Bft) 2 min 8,0 km/h (2 Bft)
26.04.2010 13:26 20,0 C 16,3 C 6,3 UV-I 4,3 C 50 % 73 % 100 % 1025,7 hPa 0,0 l/m 9,2 km/h (2 Bft) 2 min 10,0 km/h (2 Bft)
26.04.2010 13:28 20,0 C 16,3 C 6,3 UV-I 4,2 C 50 % 71 % 100 % 1025,7 hPa 0,0 l/m 8,8 km/h (2 Bft) 2 min 15,3 km/h (3 Bft)
26.04.2010 13:30 20,0 C 16,3 C 7,5 UV-I 4,2 C 50 % 71 % 100 % 1025,7 hPa 0,0 l/m 9,2 km/h (2 Bft) 2 min 25,7 km/h (4 Bft)
26.04.2010 13:32 20,0 C 16,4 C 7,5 UV-I 4,4 C 50 % 70 % 100 % 1026,2 hPa 0,0 l/m 10,4 km/h (2 Bft) 2 min 14,9 km/h (3 Bft)
26.04.2010 13:34 20,0 C 16,5 C 7,5 UV-I 4,6 C 50 % 69 % 100 % 1026,2 hPa 0,0 l/m 10,8 km/h (2 Bft) 2 min 7,6 km/h (2 Bft)
26.04.2010 13:36 20,1 C 16,7 C 8,7 UV-I 4,7 C 50 % 70 % 100 % 1026,2 hPa 0,0 l/m 11,6 km/h (2 Bft) 2 min 11,2 km/h (2 Bft)
26.04.2010 13:38 20,1 C 16,6 C 8,7 UV-I 5,1 C 50 % 70 % 100 % 1026,2 hPa 0,0 l/m 12,0 km/h (2 Bft) 2 min 13,3 km/h (3 Bft)
26.04.2010 13:40 20,2 C 16,8 C 10,1 UV-I 5,3 C 50 % 69 % 100 % 1026,2 hPa 0,0 l/m 12,4 km/h (3 Bft) 2 min 39,3 km/h (6 Bft)
26.04.2010 13:42 20,2 C 17,1 C 10,1 UV-I 5,4 C 50 % 68 % 100 % 1026,2 hPa 0,0 l/m 11,2 km/h (2 Bft) 2 min 11,2 km/h (2 Bft)
26.04.2010 13:44 20,3 C 17,0 C 10,1 UV-I 5,7 C 50 % 68 % 100 % 1026,2 hPa 0,0 l/m 11,2 km/h (2 Bft) 2 min 11,2 km/h (2 Bft)
26.04.2010 13:46 20,3 C 17,2 C 10,3 UV-I 5,9 C 50 % 69 % 100 % 1026,2 hPa 0,0 l/m 10,8 km/h (2 Bft) 2 min 12,8 km/h (3 Bft)
26.04.2010 13:48 20,4 C 17,4 C 10,3 UV-I 6,0 C 49 % 67 % 100 % 1026,2 hPa 0,0 l/m 10,4 km/h (2 Bft) 2 min 14,1 km/h (3 Bft)
26.04.2010 13:50 20,4 C 17,4 C 6,8 UV-I 6,0 C 49 % 66 % 100 % 1026,2 hPa 0,0 l/m 10,0 km/h (2 Bft) 2 min 6,8 km/h (2 Bft)
26.04.2010 13:52 20,4 C 17,4 C 6,8 UV-I 5,5 C 49 % 65 % 100 % 1026,6 hPa 0,0 l/m 9,6 km/h (2 Bft) 2 min 17,7 km/h (3 Bft)
26.04.2010 13:54 20,4 C 17,4 C 6,8 UV-I 4,8 C 49 % 65 % 100 % 1026,6 hPa 0,0 l/m 9,2 km/h (2 Bft) 2 min 6,8 km/h (2 Bft)
26.04.2010 13:56 20,4 C 17,3 C 1,8 UV-I 4,2 C 49 % 64 % 100 % 1026,6 hPa 0,0 l/m 9,2 km/h (2 Bft) 2 min 11,2 km/h (2 Bft)
26.04.2010 13:58 20,4 C 17,3 C 1,8 UV-I 3,5 C 49 % 65 % 100 % 1026,6 hPa 0,0 l/m 8,8 km/h (2 Bft) 2 min 13,7 km/h (3 Bft)
26.04.2010 14:00 20,4 C 17,3 C 5,2 UV-I 3,1 C 49 % 65 % 89 % 1026,6 hPa 0,0 l/m 8,0 km/h (2 Bft) 2 min 10,8 km/h (2 Bft)
26.04.2010 14:02 20,5 C 17,5 C 5,2 UV-I 3,2 C 49 % 65 % 91 % 1026,6 hPa 0,0 l/m 8,4 km/h (2 Bft) 2 min 10,0 km/h (2 Bft)
26.04.2010 14:04 20,5 C 17,5 C 5,2 UV-I 4,0 C 50 % 66 % 100 % 1026,6 hPa 0,0 l/m 7,6 km/h (2 Bft) 2 min 7,2 km/h (2 Bft)
26.04.2010 14:06 20,6 C 17,6 C 8,8 UV-I 4,4 C 49 % 66 % 100 % 1026,6 hPa 0,0 l/m 8,0 km/h (2 Bft) 2 min 5,2 km/h (1 Bft)
26.04.2010 14:08 20,6 C 17,9 C 8,8 UV-I 4,2 C 49 % 66 % 100 % 1026,6 hPa 0,0 l/m 7,2 km/h (2 Bft) 2 min 4,8 km/h (1 Bft)
26.04.2010 14:10 20,6 C 17,9 C 8,3 UV-I 4,4 C 49 % 64 % 100 % 1026,6 hPa 0,0 l/m 8,0 km/h (2 Bft) 2 min 13,7 km/h (3 Bft)
26.04.2010 14:12 20,7 C 18,0 C 8,3 UV-I 4,4 C 49 % 63 % 100 % 1027,4 hPa 0,0 l/m 8,0 km/h (2 Bft) 2 min 9,6 km/h (2 Bft)
26.04.2010 14:14 20,7 C 18,0 C 8,3 UV-I 4,5 C 49 % 63 % 100 % 1027,4 hPa 0,0 l/m 8,8 km/h (2 Bft) 2 min 36,9 km/h (5 Bft)
26.04.2010 14:16 20,7 C 18,0 C 9,7 UV-I 4,7 C 49 % 62 % 100 % 1027,4 hPa 0,0 l/m 8,4 km/h (2 Bft) 2 min 8,0 km/h (2 Bft)
26.04.2010 14:18 20,8 C 18,2 C 9,7 UV-I 4,8 C 49 % 61 % 100 % 1027,4 hPa 0,0 l/m 9,6 km/h (2 Bft) 2 min 9,2 km/h (2 Bft)
26.04.2010 14:20 20,8 C 18,2 C 7,7 UV-I 4,8 C 49 % 61 % 100 % 1027,4 hPa 0,0 l/m 10,0 km/h (2 Bft) 2 min 0,0 km/h (0 Bft)
26.04.2010 14:22 20,9 C 18,2 C 7,7 UV-I 4,4 C 49 % 61 % 100 % 1027,4 hPa 0,0 l/m 9,6 km/h (2 Bft) 2 min 13,7 km/h (3 Bft)
26.04.2010 14:24 20,9 C 18,3 C 7,7 UV-I 4,4 C 49 % 60 % 100 % 1027,4 hPa 0,0 l/m 10,0 km/h (2 Bft) 2 min 24,5 km/h (4 Bft)
26.04.2010 14:26 20,9 C 18,4 C 9,3 UV-I 4,5 C 48 % 59 % 100 % 1027,4 hPa 0,0 l/m 9,2 km/h (2 Bft) 2 min 7,6 km/h (2 Bft)
26.04.2010 14:28 21,0 C 18,4 C 9,3 UV-I 4,7 C 48 % 58 % 100 % 1027,4 hPa 0,0 l/m 9,6 km/h (2 Bft) 2 min 20,5 km/h (4 Bft)
26.04.2010 14:30 21,0 C 18,5 C 9,1 UV-I 4,6 C 48 % 58 % 100 % 1027,4 hPa 0,0 l/m 9,2 km/h (2 Bft) 2 min 30,1 km/h (5 Bft)
26.04.2010 14:32 21,1 C 18,5 C 9,1 UV-I 4,6 C 48 % 57 % 100 % 1028,8 hPa 0,0 l/m 10,0 km/h (2 Bft) 2 min 6,8 km/h (2 Bft)
26.04.2010 14:34 21,2 C 18,5 C 9,1 UV-I 4,6 C 48 % 57 % 100 % 1028,8 hPa 0,0 l/m 11,2 km/h (2 Bft) 2 min 21,3 km/h (4 Bft)
26.04.2010 14:36 21,2 C 18,5 C 9,8 UV-I 4,7 C 48 % 57 % 100 % 1028,8 hPa 0,0 l/m 11,2 km/h (2 Bft) 2 min 16,9 km/h (3 Bft)
26.04.2010 14:38 21,2 C 18,6 C 9,8 UV-I 4,7 C 47 % 57 % 100 % 1028,8 hPa 0,0 l/m 11,2 km/h (2 Bft) 2 min 11,2 km/h (2 Bft)
26.04.2010 14:40 21,2 C 18,7 C 10,9 UV-I 4,8 C 47 % 56 % 100 % 1028,8 hPa 0,0 l/m 11,2 km/h (2 Bft) 2 min 13,3 km/h (3 Bft)
26.04.2010 14:42 21,4 C 18,8 C 10,9 UV-I 4,8 C 47 % 56 % 100 % 1028,8 hPa 0,0 l/m 10,0 km/h (2 Bft) 2 min 5,6 km/h (1 Bft)
26.04.2010 14:44 21,4 C 18,8 C 10,9 UV-I 4,8 C 47 % 56 % 100 % 1028,8 hPa 0,0 l/m 9,6 km/h (2 Bft) 2 min 6,4 km/h (2 Bft)
26.04.2010 14:46 21,5 C 18,9 C 11,0 UV-I 4,9 C 47 % 56 % 100 % 1028,8 hPa 0,0 l/m 8,8 km/h (2 Bft) 2 min 10,8 km/h (2 Bft)
26.04.2010 14:48 21,5 C 19,1 C 11,0 UV-I 4,9 C 47 % 56 % 100 % 1028,8 hPa 0,0 l/m 8,4 km/h (2 Bft) 2 min 14,1 km/h (3 Bft)
26.04.2010 14:50 21,6 C 19,1 C 11,9 UV-I 5,0 C 46 % 55 % 100 % 1028,8 hPa 0,0 l/m 8,8 km/h (2 Bft) 2 min 14,5 km/h (3 Bft)
26.04.2010 14:52 21,6 C 19,1 C 11,9 UV-I 5,1 C 46 % 54 % 100 % 1028,8 hPa 0,0 l/m 9,2 km/h (2 Bft) 2 min 14,1 km/h (3 Bft)
26.04.2010 14:56 21,8 C 19,2 C 11,9 UV-I 5,1 C 46 % 54 % 100 % 1028,8 hPa 0,0 l/m 10,0 km/h (2 Bft) 2 min 10,0 km/h (2 Bft)
26.04.2010 14:58 21,8 C 19,3 C 11,9 UV-I 5,1 C 46 % 54 % 100 % 1028,8 hPa 0,0 l/m 10,8 km/h (2 Bft) 2 min 20,1 km/h (4 Bft)
26.04.2010 15:00 21,9 C 19,4 C 11,9 UV-I 5,0 C 46 % 54 % 100 % 1028,8 hPa 0,0 l/m 10,8 km/h (2 Bft) 2 min 13,3 km/h (3 Bft)
26.04.2010 15:02 22,0 C 19,3 C 11,9 UV-I 5,2 C 46 % 54 % 100 % 1028,8 hPa 0,0 l/m 10,0 km/h (2 Bft) 2 min 13,3 km/h (3 Bft)
26.04.2010 15:04 22,0 C 19,5 C 11,9 UV-I 5,0 C 45 % 55 % 100 % 1028,8 hPa 0,0 l/m 10,0 km/h (2 Bft) 2 min 11,2 km/h (2 Bft)
26.04.2010 15:06 22,1 C 19,4 C 11,2 UV-I 5,1 C 45 % 56 % 100 % 1028,8 hPa 0,0 l/m 10,0 km/h (2 Bft) 2 min 9,6 km/h (2 Bft)
26.04.2010 15:08 22,1 C 19,6 C 11,2 UV-I 4,9 C 45 % 55 % 100 % 1028,8 hPa 0,0 l/m 9,2 km/h (2 Bft) 2 min 15,3 km/h (3 Bft)
26.04.2010 15:10 22,2 C 19,6 C 8,1 UV-I 4,6 C 45 % 55 % 100 % 1028,8 hPa 0,0 l/m 8,4 km/h (2 Bft) 2 min 7,2 km/h (2 Bft)
26.04.2010 15:12 22,2 C 19,7 C 8,1 UV-I 4,3 C 45 % 55 % 100 % 1028,7 hPa 0,0 l/m 8,8 km/h (2 Bft) 2 min 20,1 km/h (4 Bft)
26.04.2010 15:14 22,2 C 19,6 C 8,1 UV-I 4,0 C 45 % 54 % 100 % 1028,7 hPa 0,0 l/m 8,0 km/h (2 Bft) 2 min 8,0 km/h (2 Bft)
26.04.2010 15:16 22,2 C 19,5 C 7,5 UV-I 3,7 C 45 % 55 % 100 % 1028,7 hPa 0,0 l/m 8,8 km/h (2 Bft) 2 min 15,7 km/h (3 Bft)
26.04.2010 15:18 22,2 C 19,5 C 7,5 UV-I 3,5 C 45 % 55 % 100 % 1028,7 hPa 0,0 l/m 8,4 km/h (2 Bft) 2 min 6,8 km/h (2 Bft)
26.04.2010 15:20 22,3 C 19,5 C 2,9 UV-I 3,0 C 45 % 55 % 86 % 1028,7 hPa 0,0 l/m 7,2 km/h (2 Bft) 2 min 5,6 km/h (1 Bft)
26.04.2010 15:22 22,2 C 19,5 C 2,9 UV-I 2,7 C 44 % 55 % 77 % 1028,7 hPa 0,0 l/m 6,8 km/h (2 Bft) 0 min 0,0 km/h (0 Bft)
26.04.2010 15:24 22,3 C 19,5 C 2,9 UV-I 2,6 C 44 % 55 % 74 % 1028,7 hPa 0,0 l/m 5,2 km/h (1 Bft) 0 min 5,6 km/h (1 Bft)
26.04.2010 15:26 22,2 C 19,6 C 2,8 UV-I 2,2 C 44 % 53 % 63 % 1028,7 hPa 0,0 l/m 4,8 km/h (1 Bft) 0 min 10,4 km/h (2 Bft)
26.04.2010 15:28 22,2 C 19,4 C 2,8 UV-I 2,0 C 44 % 53 % 57 % 1028,7 hPa 0,0 l/m 5,2 km/h (1 Bft) 0 min 9,2 km/h (2 Bft)
26.04.2010 15:30 22,2 C 19,4 C 0,9 UV-I 1,4 C 44 % 54 % 40 % 1028,7 hPa 0,0 l/m 5,2 km/h (1 Bft) 0 min 10,8 km/h (2 Bft)
26.04.2010 15:32 22,2 C 19,2 C 0,9 UV-I 1,0 C 44 % 53 % 29 % 1027,5 hPa 0,0 l/m 7,2 km/h (2 Bft) 0 min 11,6 km/h (2 Bft)
26.04.2010 15:34 22,1 C 19,2 C 0,9 UV-I 0,5 C 44 % 53 % 14 % 1027,5 hPa 0,0 l/m 8,0 km/h (2 Bft) 0 min 12,8 km/h (3 Bft)
26.04.2010 15:36 22,1 C 19,1 C 0,2 UV-I 0,2 C 44 % 54 % 6 % 1027,5 hPa 0,0 l/m 8,0 km/h (2 Bft) 0 min 12,0 km/h (2 Bft)
26.04.2010 15:38 22,0 C 19,1 C 0,2 UV-I 0,0 C 44 % 54 % 0 % 1027,5 hPa 0,0 l/m 7,6 km/h (2 Bft) 0 min 6,8 km/h (2 Bft)
26.04.2010 15:40 22,0 C 19,1 C 1,7 UV-I 0,0 C 44 % 55 % 0 % 1027,5 hPa 0,0 l/m 7,6 km/h (2 Bft) 0 min 6,4 km/h (2 Bft)
26.04.2010 15:42 22,0 C 19,1 C 1,7 UV-I 0,0 C 44 % 55 % 0 % 1027,5 hPa 0,0 l/m 5,6 km/h (1 Bft) 0 min 4,0 km/h (1 Bft)
26.04.2010 15:44 22,0 C 19,1 C 1,7 UV-I 0,0 C 45 % 55 % 0 % 1027,5 hPa 0,0 l/m 5,6 km/h (1 Bft) 0 min 19,7 km/h (3 Bft)
26.04.2010 15:46 22,0 C 19,1 C 6,3 UV-I 0,7 C 45 % 54 % 20 % 1027,5 hPa 0,0 l/m 5,6 km/h (1 Bft) 0 min 14,5 km/h (3 Bft)
26.04.2010 15:48 22,1 C 19,2 C 6,3 UV-I 1,5 C 45 % 54 % 43 % 1027,5 hPa 0,0 l/m 6,8 km/h (2 Bft) 0 min 32,9 km/h (5 Bft)
26.04.2010 15:50 22,1 C 19,2 C 10,2 UV-I 2,1 C 45 % 52 % 60 % 1027,5 hPa 0,0 l/m 8,0 km/h (2 Bft) 0 min 18,9 km/h (3 Bft)
26.04.2010 15:52 22,1 C 19,3 C 10,2 UV-I 2,8 C 45 % 53 % 80 % 1027,2 hPa 0,0 l/m 8,8 km/h (2 Bft) 0 min 9,6 km/h (2 Bft)
26.04.2010 15:54 22,2 C 19,3 C 10,2 UV-I 3,2 C 44 % 53 % 91 % 1027,2 hPa 0,0 l/m 10,4 km/h (2 Bft) 2 min 14,9 km/h (3 Bft)
26.04.2010 15:56 22,2 C 19,3 C 10,1 UV-I 3,4 C 44 % 53 % 97 % 1027,2 hPa 0,0 l/m 10,4 km/h (2 Bft) 2 min 14,9 km/h (3 Bft)
26.04.2010 15:58 22,3 C 19,3 C 10,1 UV-I 3,6 C 44 % 52 % 100 % 1027,2 hPa 0,0 l/m 10,8 km/h (2 Bft) 2 min 14,1 km/h (3 Bft)
26.04.2010 16:00 22,3 C 19,3 C 5,6 UV-I 3,2 C 44 % 52 % 91 % 1027,2 hPa 0,0 l/m 10,0 km/h (2 Bft) 2 min 22,9 km/h (4 Bft)
26.04.2010 16:02 22,2 C 19,1 C 5,6 UV-I 2,9 C 44 % 52 % 83 % 1027,2 hPa 0,0 l/m 9,6 km/h (2 Bft) 2 min 15,7 km/h (3 Bft)
26.04.2010 16:04 22,3 C 19,0 C 5,6 UV-I 2,0 C 44 % 52 % 57 % 1027,2 hPa 0,0 l/m 9,6 km/h (2 Bft) 0 min 12,4 km/h (3 Bft)
26.04.2010 16:06 22,3 C 18,8 C 2,2 UV-I 1,7 C 44 % 53 % 49 % 1027,2 hPa 0,0 l/m 9,2 km/h (2 Bft) 0 min 8,0 km/h (2 Bft)
26.04.2010 16:08 22,2 C 18,8 C 2,2 UV-I 1,1 C 44 % 53 % 31 % 1027,2 hPa 0,0 l/m 9,6 km/h (2 Bft) 0 min 9,6 km/h (2 Bft)
26.04.2010 16:10 22,2 C 18,8 C 2,0 UV-I 0,7 C 44 % 54 % 20 % 1027,2 hPa 0,0 l/m 9,2 km/h (2 Bft) 0 min 4,8 km/h (1 Bft)
26.04.2010 16:12 22,1 C 18,7 C 2,0 UV-I 0,5 C 43 % 54 % 14 % 1027,4 hPa 0,0 l/m 8,4 km/h (2 Bft) 0 min 17,3 km/h (3 Bft)
26.04.2010 16:14 22,1 C 18,7 C 2,0 UV-I 0,2 C 43 % 54 % 6 % 1027,4 hPa 0,0 l/m 8,8 km/h (2 Bft) 0 min 10,0 km/h (2 Bft)
26.04.2010 16:16 22,1 C 18,5 C 2,0 UV-I 0,2 C 43 % 55 % 6 % 1027,4 hPa 0,0 l/m 8,0 km/h (2 Bft) 0 min 6,0 km/h (2 Bft)
26.04.2010 16:18 22,1 C 18,6 C 2,0 UV-I 0,0 C 43 % 55 % 0 % 1027,4 hPa 0,0 l/m 7,2 km/h (2 Bft) 0 min 6,4 km/h (2 Bft)
26.04.2010 16:20 22,0 C 18,7 C 2,3 UV-I 0,0 C 43 % 55 % 0 % 1027,4 hPa 0,0 l/m 7,2 km/h (2 Bft) 0 min 10,4 km/h (2 Bft)
26.04.2010 16:22 22,0 C 18,5 C 2,3 UV-I 0,1 C 43 % 56 % 3 % 1027,4 hPa 0,0 l/m 7,2 km/h (2 Bft) 0 min 9,2 km/h (2 Bft)
26.04.2010 16:24 22,0 C 18,5 C 2,3 UV-I 0,1 C 43 % 55 % 3 % 1027,4 hPa 0,0 l/m 7,2 km/h (2 Bft) 0 min 8,8 km/h (2 Bft)
26.04.2010 16:26 22,0 C 18,5 C 2,1 UV-I 0,1 C 43 % 55 % 3 % 1027,4 hPa 0,0 l/m 7,2 km/h (2 Bft) 0 min 12,4 km/h (3 Bft)
26.04.2010 16:28 22,0 C 18,5 C 2,1 UV-I 0,1 C 43 % 55 % 3 % 1027,4 hPa 0,0 l/m 7,6 km/h (2 Bft) 0 min 11,6 km/h (2 Bft)
26.04.2010 16:30 21,9 C 18,4 C 1,5 UV-I 0,2 C 43 % 55 % 6 % 1027,4 hPa 0,0 l/m 8,0 km/h (2 Bft) 0 min 6,8 km/h (2 Bft)
26.04.2010 16:32 21,9 C 18,4 C 1,5 UV-I 0,0 C 43 % 56 % 0 % 1026,9 hPa 0,0 l/m 8,0 km/h (2 Bft) 0 min 8,0 km/h (2 Bft)
26.04.2010 16:34 21,9 C 18,4 C 1,5 UV-I 0,0 C 44 % 56 % 0 % 1026,9 hPa 0,0 l/m 7,6 km/h (2 Bft) 0 min 13,3 km/h (3 Bft)
26.04.2010 16:36 21,8 C 18,3 C 1,7 UV-I 0,0 C 44 % 56 % 0 % 1026,9 hPa 0,0 l/m 8,4 km/h (2 Bft) 0 min 15,7 km/h (3 Bft)
26.04.2010 16:38 21,9 C 18,2 C 1,7 UV-I 0,0 C 43 % 56 % 0 % 1026,9 hPa 0,0 l/m 8,4 km/h (2 Bft) 0 min 9,2 km/h (2 Bft)
26.04.2010 16:40 21,8 C 18,2 C 1,4 UV-I 0,0 C 44 % 56 % 0 % 1026,9 hPa 0,0 l/m 8,0 km/h (2 Bft) 0 min 10,8 km/h (2 Bft)
26.04.2010 16:42 21,8 C 18,3 C 1,4 UV-I 0,0 C 44 % 57 % 0 % 1026,9 hPa 0,0 l/m 7,6 km/h (2 Bft) 0 min 7,6 km/h (2 Bft)
26.04.2010 16:44 21,8 C 18,1 C 1,4 UV-I 0,0 C 44 % 57 % 0 % 1026,9 hPa 0,0 l/m 7,6 km/h (2 Bft) 0 min 6,8 km/h (2 Bft)
26.04.2010 16:48 21,7 C 18,0 C 1,2 UV-I 0,0 C 44 % 57 % 0 % 1026,9 hPa 0,0 l/m 8,4 km/h (2 Bft) 0 min 17,3 km/h (3 Bft)
26.04.2010 16:50 21,7 C 18,0 C 1,8 UV-I 0,0 C 44 % 58 % 0 % 1026,9 hPa 0,0 l/m 8,0 km/h (2 Bft) 0 min 5,2 km/h (1 Bft)
26.04.2010 16:52 21,7 C 18,0 C 1,8 UV-I 0,0 C 44 % 58 % 0 % 1026,4 hPa 0,0 l/m 8,4 km/h (2 Bft) 0 min 11,6 km/h (2 Bft)
26.04.2010 16:54 21,6 C 18,0 C 1,8 UV-I 0,1 C 44 % 58 % 3 % 1026,4 hPa 0,0 l/m 8,0 km/h (2 Bft) 0 min 10,4 km/h (2 Bft)
26.04.2010 16:56 21,6 C 18,0 C 3,6 UV-I 0,5 C 44 % 58 % 14 % 1026,4 hPa 0,0 l/m 7,2 km/h (2 Bft) 0 min 0,0 km/h (0 Bft)
26.04.2010 16:58 21,7 C 18,1 C 3,6 UV-I 1,2 C 44 % 59 % 34 % 1026,4 hPa 0,0 l/m 6,0 km/h (2 Bft) 0 min 6,4 km/h (2 Bft)
26.04.2010 17:00 21,7 C 18,3 C 7,3 UV-I 2,0 C 44 % 58 % 57 % 1026,4 hPa 0,0 l/m 5,6 km/h (1 Bft) 0 min 10,0 km/h (2 Bft)
26.04.2010 17:02 21,8 C 18,4 C 7,3 UV-I 2,6 C 44 % 58 % 74 % 1026,4 hPa 0,0 l/m 6,0 km/h (2 Bft) 0 min 7,6 km/h (2 Bft)
26.04.2010 17:04 21,8 C 18,4 C 7,3 UV-I 2,8 C 45 % 57 % 80 % 1026,4 hPa 0,0 l/m 6,4 km/h (2 Bft) 0 min 6,8 km/h (2 Bft)
26.04.2010 17:06 21,8 C 18,3 C 2,9 UV-I 2,5 C 45 % 57 % 71 % 1026,4 hPa 0,0 l/m 8,0 km/h (2 Bft) 0 min 24,1 km/h (4 Bft)
26.04.2010 17:08 21,8 C 18,2 C 2,9 UV-I 2,3 C 45 % 57 % 66 % 1026,4 hPa 0,0 l/m 8,4 km/h (2 Bft) 0 min 4,8 km/h (1 Bft)
26.04.2010 17:10 21,8 C 18,1 C 2,2 UV-I 1,9 C 44 % 56 % 54 % 1026,4 hPa 0,0 l/m 10,8 km/h (2 Bft) 0 min 7,6 km/h (2 Bft)
26.04.2010 17:12 21,8 C 18,1 C 2,2 UV-I 1,5 C 44 % 57 % 43 % 1027,0 hPa 0,0 l/m 11,2 km/h (2 Bft) 0 min 10,4 km/h (2 Bft)
26.04.2010 17:14 21,8 C 18,0 C 2,2 UV-I 1,6 C 44 % 57 % 46 % 1027,0 hPa 0,0 l/m 10,8 km/h (2 Bft) 0 min 4,4 km/h (1 Bft)
26.04.2010 17:16 21,8 C 18,1 C 3,7 UV-I 1,7 C 45 % 57 % 49 % 1027,0 hPa 0,0 l/m 10,4 km/h (2 Bft) 0 min 17,3 km/h (3 Bft)
26.04.2010 17:18 21,8 C 18,2 C 3,7 UV-I 1,7 C 45 % 57 % 49 % 1027,0 hPa 0,0 l/m 10,0 km/h (2 Bft) 0 min 13,7 km/h (3 Bft)
26.04.2010 17:20 21,8 C 18,3 C 3,9 UV-I 1,8 C 45 % 57 % 51 % 1027,0 hPa 0,0 l/m 8,8 km/h (2 Bft) 0 min 10,0 km/h (2 Bft)
26.04.2010 17:22 21,8 C 18,3 C 3,9 UV-I 2,0 C 45 % 57 % 57 % 1027,0 hPa 0,0 l/m 8,0 km/h (2 Bft) 0 min 14,1 km/h (3 Bft)
26.04.2010 17:24 21,8 C 18,2 C 3,9 UV-I 2,1 C 45 % 57 % 60 % 1027,0 hPa 0,0 l/m 8,4 km/h (2 Bft) 0 min 10,0 km/h (2 Bft)
26.04.2010 17:26 21,8 C 18,3 C 3,1 UV-I 2,2 C 45 % 57 % 63 % 1027,0 hPa 0,0 l/m 8,4 km/h (2 Bft) 0 min 11,2 km/h (2 Bft)
26.04.2010 17:28 21,8 C 18,4 C 3,1 UV-I 2,4 C 45 % 57 % 69 % 1027,0 hPa 0,0 l/m 7,6 km/h (2 Bft) 0 min 7,6 km/h (2 Bft)
26.04.2010 17:30 21,9 C 18,5 C 3,8 UV-I 2,8 C 45 % 56 % 80 % 1027,0 hPa 0,0 l/m 8,0 km/h (2 Bft) 0 min 29,7 km/h (5 Bft)
26.04.2010 17:32 21,9 C 18,4 C 3,8 UV-I 3,1 C 45 % 56 % 89 % 1027,6 hPa 0,0 l/m 8,0 km/h (2 Bft) 2 min 15,3 km/h (3 Bft)
26.04.2010 17:34 21,9 C 18,4 C 3,8 UV-I 3,2 C 45 % 56 % 91 % 1027,6 hPa 0,0 l/m 8,0 km/h (2 Bft) 2 min 11,2 km/h (2 Bft)
26.04.2010 17:36 22,0 C 18,4 C 3,1 UV-I 3,2 C 45 % 56 % 91 % 1027,6 hPa 0,0 l/m 8,8 km/h (2 Bft) 2 min 9,2 km/h (2 Bft)
26.04.2010 17:38 22,0 C 18,5 C 3,1 UV-I 3,1 C 45 % 56 % 89 % 1027,6 hPa 0,0 l/m 8,4 km/h (2 Bft) 2 min 10,4 km/h (2 Bft)
26.04.2010 17:40 22,0 C 18,5 C 3,1 UV-I 3,4 C 44 % 57 % 97 % 1027,6 hPa 0,0 l/m 8,4 km/h (2 Bft) 2 min 7,2 km/h (2 Bft)
26.04.2010 17:42 22,0 C 18,7 C 3,1 UV-I 3,6 C 44 % 56 % 100 % 1027,6 hPa 0,0 l/m 7,2 km/h (2 Bft) 2 min 8,0 km/h (2 Bft)
26.04.2010 17:46 22,1 C 18,7 C 2,4 UV-I 3,2 C 44 % 55 % 91 % 1027,6 hPa 0,0 l/m 7,2 km/h (2 Bft) 2 min 13,7 km/h (3 Bft)
26.04.2010 17:48 22,0 C 18,5 C 2,4 UV-I 2,6 C 44 % 55 % 74 % 1027,6 hPa 0,0 l/m 8,0 km/h (2 Bft) 0 min 11,2 km/h (2 Bft)
26.04.2010 17:50 22,1 C 18,5 C 1,6 UV-I 1,9 C 44 % 55 % 54 % 1027,6 hPa 0,0 l/m 8,8 km/h (2 Bft) 0 min 5,6 km/h (1 Bft)
26.04.2010 17:52 22,0 C 18,3 C 1,6 UV-I 1,6 C 44 % 55 % 46 % 1027,2 hPa 0,0 l/m 8,8 km/h (2 Bft) 0 min 12,8 km/h (3 Bft)
26.04.2010 17:54 22,0 C 18,3 C 1,6 UV-I 1,2 C 43 % 55 % 34 % 1027,2 hPa 0,0 l/m 8,8 km/h (2 Bft) 0 min 10,4 km/h (2 Bft)
26.04.2010 17:56 22,0 C 18,2 C 1,0 UV-I 0,7 C 43 % 56 % 20 % 1027,2 hPa 0,0 l/m 8,4 km/h (2 Bft) 0 min 8,4 km/h (2 Bft)
26.04.2010 17:58 22,0 C 18,2 C 1,0 UV-I 0,3 C 43 % 56 % 9 % 1027,2 hPa 0,0 l/m 7,6 km/h (2 Bft) 0 min 7,6 km/h (2 Bft)
26.04.2010 18:00 22,0 C 18,1 C 0,5 UV-I 0,1 C 43 % 56 % 3 % 1027,2 hPa 0,0 l/m 6,4 km/h (2 Bft) 0 min 6,4 km/h (2 Bft)
26.04.2010 18:02 22,0 C 18,1 C 0,5 UV-I 0,0 C 43 % 56 % 0 % 1027,2 hPa 0,0 l/m 6,8 km/h (2 Bft) 0 min 23,3 km/h (4 Bft)
26.04.2010 18:04 21,9 C 18,1 C 0,5 UV-I 0,0 C 43 % 56 % 0 % 1027,2 hPa 0,0 l/m 6,4 km/h (2 Bft) 0 min 7,2 km/h (2 Bft)
26.04.2010 18:06 21,9 C 18,0 C 0,4 UV-I 0,0 C 43 % 56 % 0 % 1027,2 hPa 0,0 l/m 6,0 km/h (2 Bft) 0 min 23,3 km/h (4 Bft)
26.04.2010 18:08 21,9 C 18,0 C 0,4 UV-I 0,0 C 43 % 56 % 0 % 1027,2 hPa 0,0 l/m 5,2 km/h (1 Bft) 0 min 4,0 km/h (1 Bft)
26.04.2010 18:10 21,9 C 17,9 C 0,4 UV-I 0,0 C 43 % 56 % 0 % 1027,2 hPa 0,0 l/m 5,2 km/h (1 Bft) 0 min 6,4 km/h (2 Bft)
26.04.2010 18:12 21,8 C 17,8 C 0,4 UV-I 0,0 C 43 % 57 % 0 % 1026,8 hPa 0,0 l/m 5,2 km/h (1 Bft) 0 min 4,4 km/h (1 Bft)
26.04.2010 18:14 21,8 C 17,8 C 0,4 UV-I 0,0 C 43 % 57 % 0 % 1026,8 hPa 0,0 l/m 4,0 km/h (1 Bft) 0 min 0,0 km/h (0 Bft)
26.04.2010 18:16 21,8 C 17,9 C 0,3 UV-I 0,0 C 43 % 57 % 0 % 1026,8 hPa 0,0 l/m 5,2 km/h (1 Bft) 0 min 22,5 km/h (4 Bft)
26.04.2010 18:18 21,8 C 17,8 C 0,3 UV-I 0,0 C 43 % 57 % 0 % 1026,8 hPa 0,0 l/m 4,8 km/h (1 Bft) 0 min 7,6 km/h (2 Bft)
26.04.2010 18:20 21,8 C 17,9 C 0,3 UV-I 0,0 C 43 % 57 % 0 % 1026,8 hPa 0,0 l/m 5,6 km/h (1 Bft) 0 min 6,8 km/h (2 Bft)
26.04.2010 18:22 21,8 C 17,7 C 0,3 UV-I 0,0 C 43 % 57 % 0 % 1026,8 hPa 0,0 l/m 6,0 km/h (2 Bft) 0 min 8,0 km/h (2 Bft)
26.04.2010 18:24 21,8 C 17,8 C 0,3 UV-I 0,0 C 43 % 57 % 0 % 1026,8 hPa 0,0 l/m 6,0 km/h (2 Bft) 0 min 7,2 km/h (2 Bft)
26.04.2010 18:26 21,7 C 17,7 C 0,5 UV-I 0,0 C 44 % 57 % 0 % 1026,8 hPa 0,0 l/m 6,0 km/h (2 Bft) 0 min 0,0 km/h (0 Bft)
26.04.2010 18:28 21,7 C 17,7 C 0,5 UV-I 0,0 C 44 % 56 % 0 % 1026,8 hPa 0,0 l/m 6,0 km/h (2 Bft) 0 min 15,3 km/h (3 Bft)
26.04.2010 18:30 21,7 C 17,6 C 0,7 UV-I 0,0 C 44 % 56 % 0 % 1026,8 hPa 0,0 l/m 6,8 km/h (2 Bft) 0 min 9,6 km/h (2 Bft)
26.04.2010 18:32 21,7 C 17,6 C 0,7 UV-I 0,0 C 44 % 56 % 0 % 1026,2 hPa 0,0 l/m 6,0 km/h (2 Bft) 0 min 8,0 km/h (2 Bft)
26.04.2010 18:34 21,6 C 17,7 C 0,7 UV-I 0,0 C 44 % 56 % 0 % 1026,2 hPa 0,0 l/m 6,8 km/h (2 Bft) 0 min 11,6 km/h (2 Bft)
26.04.2010 18:36 21,6 C 17,6 C 1,1 UV-I 0,1 C 44 % 55 % 3 % 1026,2 hPa 0,0 l/m 8,0 km/h (2 Bft) 0 min 19,7 km/h (3 Bft)
26.04.2010 18:38 21,6 C 17,7 C 1,1 UV-I 0,1 C 44 % 55 % 3 % 1026,2 hPa 0,0 l/m 8,8 km/h (2 Bft) 0 min 26,9 km/h (4 Bft)
26.04.2010 18:40 21,6 C 17,6 C 0,8 UV-I 0,3 C 44 % 55 % 9 % 1026,2 hPa 0,0 l/m 8,8 km/h (2 Bft) 0 min 12,4 km/h (3 Bft)
26.04.2010 18:42 21,6 C 17,7 C 0,8 UV-I 0,3 C 44 % 55 % 9 % 1026,2 hPa 0,0 l/m 10,4 km/h (2 Bft) 0 min 13,7 km/h (3 Bft)
26.04.2010 18:44 21,6 C 17,7 C 0,8 UV-I 0,3 C 44 % 56 % 9 % 1026,2 hPa 0,0 l/m 10,4 km/h (2 Bft) 0 min 16,1 km/h (3 Bft)
26.04.2010 18:46 21,6 C 17,7 C 1,0 UV-I 0,5 C 44 % 56 % 14 % 1026,2 hPa 0,0 l/m 11,2 km/h (2 Bft) 0 min 7,2 km/h (2 Bft)
26.04.2010 18:48 21,6 C 17,7 C 1,0 UV-I 0,5 C 44 % 56 % 14 % 1026,2 hPa 0,0 l/m 11,2 km/h (2 Bft) 0 min 17,7 km/h (3 Bft)
26.04.2010 18:50 21,6 C 17,6 C 1,2 UV-I 0,6 C 44 % 56 % 17 % 1026,2 hPa 0,0 l/m 10,8 km/h (2 Bft) 0 min 17,3 km/h (3 Bft)
26.04.2010 18:52 21,6 C 17,7 C 1,2 UV-I 0,5 C 44 % 56 % 14 % 1027,0 hPa 0,0 l/m 11,2 km/h (2 Bft) 0 min 33,3 km/h (5 Bft)
26.04.2010 18:54 21,6 C 17,6 C 1,2 UV-I 0,6 C 44 % 56 % 17 % 1027,0 hPa 0,0 l/m 10,4 km/h (2 Bft) 0 min 14,5 km/h (3 Bft)
26.04.2010 18:56 21,6 C 17,6 C 1,0 UV-I 0,6 C 44 % 56 % 17 % 1027,0 hPa 0,0 l/m 10,0 km/h (2 Bft) 0 min 17,3 km/h (3 Bft)
26.04.2010 18:58 21,6 C 17,7 C 1,0 UV-I 0,4 C 44 % 55 % 11 % 1027,0 hPa 0,0 l/m 10,8 km/h (2 Bft) 0 min 12,8 km/h (3 Bft)
26.04.2010 19:00 21,6 C 17,7 C 0,9 UV-I 0,3 C 44 % 56 % 9 % 1027,0 hPa 0,0 l/m 10,8 km/h (2 Bft) 0 min 10,4 km/h (2 Bft)
26.04.2010 19:02 21,6 C 17,5 C 0,9 UV-I 0,3 C 44 % 55 % 9 % 1027,0 hPa 0,0 l/m 10,8 km/h (2 Bft) 0 min 15,3 km/h (3 Bft)
26.04.2010 19:04 21,5 C 17,5 C 0,9 UV-I 0,1 C 44 % 55 % 3 % 1027,0 hPa 0,0 l/m 10,4 km/h (2 Bft) 0 min 8,4 km/h (2 Bft)
26.04.2010 19:06 21,5 C 17,4 C 0,6 UV-I 0,1 C 44 % 56 % 3 % 1027,0 hPa 0,0 l/m 9,2 km/h (2 Bft) 0 min 7,2 km/h (2 Bft)
26.04.2010 19:08 21,5 C 17,5 C 0,6 UV-I 0,0 C 44 % 56 % 0 % 1027,0 hPa 0,0 l/m 8,4 km/h (2 Bft) 0 min 15,3 km/h (3 Bft)
26.04.2010 19:10 21,5 C 17,5 C 0,8 UV-I 0,0 C 44 % 55 % 0 % 1027,0 hPa 0,0 l/m 7,6 km/h (2 Bft) 0 min 8,0 km/h (2 Bft)
26.04.2010 19:12 21,5 C 17,3 C 0,8 UV-I 0,0 C 44 % 56 % 0 % 1026,7 hPa 0,0 l/m 7,6 km/h (2 Bft) 0 min 5,2 km/h (1 Bft)
26.04.2010 19:14 21,5 C 17,3 C 0,8 UV-I 0,0 C 44 % 56 % 0 % 1026,7 hPa 0,0 l/m 6,4 km/h (2 Bft) 0 min 8,0 km/h (2 Bft)
26.04.2010 19:16 21,5 C 17,3 C 0,4 UV-I 0,0 C 44 % 56 % 0 % 1026,7 hPa 0,0 l/m 6,0 km/h (2 Bft) 0 min 5,6 km/h (1 Bft)
26.04.2010 19:18 21,5 C 17,3 C 0,4 UV-I 0,0 C 44 % 56 % 0 % 1026,7 hPa 0,0 l/m 6,8 km/h (2 Bft) 0 min 0,0 km/h (0 Bft)
26.04.2010 19:20 21,5 C 17,2 C 0,3 UV-I 0,0 C 44 % 56 % 0 % 1026,7 hPa 0,0 l/m 5,6 km/h (1 Bft) 0 min 8,0 km/h (2 Bft)
26.04.2010 19:22 21,4 C 17,2 C 0,3 UV-I 0,0 C 44 % 56 % 0 % 1026,7 hPa 0,0 l/m 4,8 km/h (1 Bft) 0 min 6,0 km/h (2 Bft)
26.04.2010 19:24 21,4 C 17,2 C 0,3 UV-I 0,0 C 44 % 57 % 0 % 1026,7 hPa 0,0 l/m 4,4 km/h (1 Bft) 0 min 6,0 km/h (2 Bft)
26.04.2010 19:26 21,4 C 17,2 C 0,5 UV-I 0,0 C 44 % 57 % 0 % 1026,7 hPa 0,0 l/m 4,0 km/h (1 Bft) 0 min 5,6 km/h (1 Bft)
26.04.2010 19:28 21,4 C 17,2 C 0,5 UV-I 0,0 C 44 % 57 % 0 % 1026,7 hPa 0,0 l/m 3,2 km/h (1 Bft) 0 min 4,4 km/h (1 Bft)
26.04.2010 19:30 21,4 C 17,1 C 0,3 UV-I 0,0 C 44 % 57 % 0 % 1026,7 hPa 0,0 l/m 3,6 km/h (1 Bft) 0 min 4,0 km/h (1 Bft)
26.04.2010 19:34 21,2 C 16,9 C 0,3 UV-I 0,0 C 44 % 57 % 0 % 1026,2 hPa 0,0 l/m 4,8 km/h (1 Bft) 0 min 9,6 km/h (2 Bft)
26.04.2010 19:38 21,3 C 16,8 C 0,1 UV-I 0,0 C 44 % 56 % 0 % 1026,2 hPa 0,0 l/m 8,0 km/h (2 Bft) 0 min 16,1 km/h (3 Bft)
26.04.2010 19:40 21,3 C 16,8 C 0,1 UV-I 0,0 C 44 % 56 % 0 % 1026,2 hPa 0,0 l/m 10,0 km/h (2 Bft) 0 min 6,8 km/h (2 Bft)
26.04.2010 19:42 21,2 C 16,8 C 0,1 UV-I 0,0 C 44 % 57 % 0 % 1026,2 hPa 0,0 l/m 10,8 km/h (2 Bft) 0 min 15,3 km/h (3 Bft)
26.04.2010 19:44 21,2 C 16,8 C 0,1 UV-I 0,0 C 44 % 57 % 0 % 1026,2 hPa 0,0 l/m 11,2 km/h (2 Bft) 0 min 26,9 km/h (4 Bft)
26.04.2010 19:46 21,2 C 16,7 C 0,2 UV-I 0,0 C 44 % 57 % 0 % 1026,2 hPa 0,0 l/m 11,2 km/h (2 Bft) 0 min 12,4 km/h (3 Bft)
26.04.2010 19:48 21,2 C 16,7 C 0,2 UV-I 0,0 C 44 % 57 % 0 % 1026,2 hPa 0,0 l/m 9,2 km/h (2 Bft) 0 min 6,4 km/h (2 Bft)
26.04.2010 19:50 21,2 C 16,6 C 0,1 UV-I 0,0 C 44 % 57 % 0 % 1026,2 hPa 0,0 l/m 6,8 km/h (2 Bft) 0 min 18,5 km/h (3 Bft)
26.04.2010 19:52 21,2 C 16,5 C 0,1 UV-I 0,0 C 44 % 57 % 0 % 1026,4 hPa 0,0 l/m 6,8 km/h (2 Bft) 0 min 9,6 km/h (2 Bft)
26.04.2010 19:54 21,1 C 16,5 C 0,1 UV-I 0,0 C 44 % 57 % 0 % 1026,4 hPa 0,0 l/m 6,0 km/h (2 Bft) 0 min 4,0 km/h (1 Bft)
26.04.2010 19:56 21,1 C 16,4 C 0,0 UV-I 0,0 C 44 % 58 % 0 % 1026,4 hPa 0,0 l/m 4,4 km/h (1 Bft) 0 min 5,6 km/h (1 Bft)
26.04.2010 19:58 21,1 C 16,4 C 0,0 UV-I 0,0 C 44 % 58 % 0 % 1026,4 hPa 0,0 l/m 4,8 km/h (1 Bft) 0 min 10,0 km/h (2 Bft)
26.04.2010 20:00 21,0 C 16,4 C 0,0 UV-I 0,0 C 44 % 58 % 0 % 1026,4 hPa 0,0 l/m 5,2 km/h (1 Bft) 0 min 8,8 km/h (2 Bft)
26.04.2010 20:02 21,0 C 16,3 C 0,0 UV-I 0,0 C 44 % 58 % 0 % 1026,4 hPa 0,0 l/m 3,6 km/h (1 Bft) 0 min 0,0 km/h (0 Bft)
26.04.2010 20:04 21,0 C 16,3 C 0,0 UV-I 0,0 C 44 % 58 % 0 % 1026,4 hPa 0,0 l/m 2,8 km/h (1 Bft) 0 min 0,0 km/h (0 Bft)
26.04.2010 20:06 21,0 C 16,3 C 0,1 UV-I 0,0 C 44 % 58 % 0 % 1026,4 hPa 0,0 l/m 4,0 km/h (1 Bft) 0 min 15,3 km/h (3 Bft)
26.04.2010 20:08 21,0 C 16,3 C 0,1 UV-I 0,0 C 44 % 58 % 0 % 1026,4 hPa 0,0 l/m 5,2 km/h (1 Bft) 0 min 13,7 km/h (3 Bft)
26.04.2010 20:10 21,0 C 16,2 C 0,0 UV-I 0,0 C 44 % 58 % 0 % 1026,4 hPa 0,0 l/m 5,2 km/h (1 Bft) 0 min 10,8 km/h (2 Bft)
26.04.2010 20:12 20,9 C 16,1 C 0,0 UV-I 0,0 C 45 % 58 % 0 % 1026,4 hPa 0,0 l/m 5,2 km/h (1 Bft) 0 min 0,0 km/h (0 Bft)
26.04.2010 20:14 20,9 C 16,1 C 0,0 UV-I 0,0 C 45 % 58 % 0 % 1026,4 hPa 0,0 l/m 5,6 km/h (1 Bft) 0 min 10,0 km/h (2 Bft)
26.04.2010 20:16 20,8 C 16,1 C 0,0 UV-I 0,0 C 45 % 58 % 0 % 1026,4 hPa 0,0 l/m 6,0 km/h (2 Bft) 0 min 4,4 km/h (1 Bft)
26.04.2010 20:18 20,8 C 16,1 C 0,0 UV-I 0,0 C 45 % 59 % 0 % 1026,4 hPa 0,0 l/m 4,8 km/h (1 Bft) 0 min 0,0 km/h (0 Bft)
26.04.2010 20:20 20,8 C 16,0 C 0,0 UV-I 0,0 C 45 % 59 % 0 % 1026,4 hPa 0,0 l/m 4,4 km/h (1 Bft) 0 min 0,0 km/h (0 Bft)
26.04.2010 20:22 20,8 C 16,0 C 0,0 UV-I 0,0 C 45 % 59 % 0 % 1026,4 hPa 0,0 l/m 4,4 km/h (1 Bft) 0 min 0,0 km/h (0 Bft)
26.04.2010 20:24 20,8 C 15,9 C 0,0 UV-I 0,0 C 45 % 59 % 0 % 1026,4 hPa 0,0 l/m 4,8 km/h (1 Bft) 0 min 10,0 km/h (2 Bft)
26.04.2010 20:26 20,8 C 15,9 C 0,0 UV-I 0,0 C 45 % 59 % 0 % 1026,4 hPa 0,0 l/m 4,0 km/h (1 Bft) 0 min 5,6 km/h (1 Bft)
26.04.2010 20:28 20,8 C 15,8 C 0,0 UV-I 0,0 C 45 % 59 % 0 % 1026,4 hPa 0,0 l/m 3,2 km/h (1 Bft) 0 min 0,0 km/h (0 Bft)
26.04.2010 20:30 20,7 C 15,9 C 0,0 UV-I 0,0 C 45 % 60 % 0 % 1026,4 hPa 0,0 l/m 2,8 km/h (1 Bft) 0 min 0,0 km/h (0 Bft)
26.04.2010 20:32 20,7 C 15,7 C 0,0 UV-I 0,0 C 45 % 60 % 0 % 1026,5 hPa 0,0 l/m 2,4 km/h (1 Bft) 0 min 12,8 km/h (3 Bft)
26.04.2010 20:34 20,7 C 15,7 C 0,0 UV-I 0,0 C 45 % 60 % 0 % 1026,5 hPa 0,0 l/m 2,4 km/h (1 Bft) 0 min 0,0 km/h (0 Bft)
26.04.2010 20:36 20,6 C 15,7 C 0,0 UV-I 0,0 C 45 % 60 % 0 % 1026,5 hPa 0,0 l/m 1,6 km/h (1 Bft) 0 min 0,0 km/h (0 Bft)
26.04.2010 20:38 20,6 C 15,7 C 0,0 UV-I 0,0 C 45 % 60 % 0 % 1026,5 hPa 0,0 l/m 1,2 km/h (1 Bft) 0 min 0,0 km/h (0 Bft)
26.04.2010 20:40 20,6 C 15,5 C 0,0 UV-I 0,0 C 45 % 60 % 0 % 1026,5 hPa 0,0 l/m 2,0 km/h (1 Bft) 0 min 8,4 km/h (2 Bft)
26.04.2010 20:42 20,6 C 15,5 C 0,0 UV-I 0,0 C 45 % 60 % 0 % 1026,5 hPa 0,0 l/m 2,4 km/h (1 Bft) 0 min 0,0 km/h (0 Bft)
26.04.2010 20:44 20,6 C 15,5 C 0,0 UV-I 0,0 C 45 % 60 % 0 % 1026,5 hPa 0,0 l/m 1,2 km/h (1 Bft) 0 min 0,0 km/h (0 Bft)
26.04.2010 20:46 20,6 C 15,5 C 0,0 UV-I 0,0 C 45 % 61 % 0 % 1026,5 hPa 0,0 l/m 1,2 km/h (1 Bft) 0 min 0,0 km/h (0 Bft)
26.04.2010 20:48 20,5 C 15,3 C 0,0 UV-I 0,0 C 45 % 61 % 0 % 1026,5 hPa 0,0 l/m 1,2 km/h (1 Bft) 0 min 0,0 km/h (0 Bft)
26.04.2010 20:50 20,5 C 15,2 C 0,0 UV-I 0,0 C 45 % 62 % 0 % 1026,5 hPa 0,0 l/m 0,8 km/h (0 Bft) 0 min 0,0 km/h (0 Bft)
26.04.2010 20:52 20,5 C 15,2 C 0,0 UV-I 0,0 C 45 % 62 % 0 % 1026,8 hPa 0,0 l/m 0,0 km/h (0 Bft) 0 min 0,0 km/h (0 Bft)
26.04.2010 20:54 20,5 C 15,2 C 0,0 UV-I 0,0 C 45 % 62 % 0 % 1026,8 hPa 0,0 l/m 0,0 km/h (0 Bft) 0 min 0,0 km/h (0 Bft)
26.04.2010 20:56 20,5 C 15,1 C 0,0 UV-I 0,0 C 45 % 62 % 0 % 1026,8 hPa 0,0 l/m 0,0 km/h (0 Bft) 0 min 0,0 km/h (0 Bft)
26.04.2010 20:58 20,4 C 15,0 C 0,0 UV-I 0,0 C 45 % 63 % 0 % 1026,8 hPa 0,0 l/m 0,0 km/h (0 Bft) 0 min 0,0 km/h (0 Bft)
26.04.2010 21:00 20,4 C 15,0 C 0,0 UV-I 0,0 C 46 % 63 % 0 % 1026,8 hPa 0,0 l/m 0,0 km/h (0 Bft) 0 min 0,0 km/h (0 Bft)
26.04.2010 21:02 20,4 C 14,9 C 0,0 UV-I 0,0 C 46 % 63 % 0 % 1026,8 hPa 0,0 l/m 0,0 km/h (0 Bft) 0 min 0,0 km/h (0 Bft)
26.04.2010 21:04 20,4 C 14,9 C 0,0 UV-I 0,0 C 46 % 63 % 0 % 1026,8 hPa 0,0 l/m 0,0 km/h (0 Bft) 0 min 0,0 km/h (0 Bft)
26.04.2010 21:08 20,4 C 14,9 C 0,0 UV-I 0,0 C 46 % 64 % 0 % 1026,8 hPa 0,0 l/m 0,0 km/h (0 Bft) 0 min 0,0 km/h (0 Bft)
26.04.2010 21:10 20,4 C 14,7 C 0,0 UV-I 0,0 C 46 % 64 % 0 % 1026,8 hPa 0,0 l/m 0,0 km/h (0 Bft) 0 min 0,0 km/h (0 Bft)
26.04.2010 21:12 20,2 C 14,6 C 0,0 UV-I 0,0 C 46 % 64 % 0 % 1026,9 hPa 0,0 l/m 0,0 km/h (0 Bft) 0 min 0,0 km/h (0 Bft)
26.04.2010 21:14 20,2 C 14,7 C 0,0 UV-I 0,0 C 46 % 65 % 0 % 1026,9 hPa 0,0 l/m 0,0 km/h (0 Bft) 0 min 0,0 km/h (0 Bft)
26.04.2010 21:16 20,3 C 14,5 C 0,0 UV-I 0,0 C 46 % 64 % 0 % 1026,9 hPa 0,0 l/m 0,0 km/h (0 Bft) 0 min 0,0 km/h (0 Bft)
26.04.2010 21:18 20,3 C 14,4 C 0,0 UV-I 0,0 C 46 % 65 % 0 % 1026,9 hPa 0,0 l/m 0,0 km/h (0 Bft) 0 min 0,0 km/h (0 Bft)
26.04.2010 21:20 20,3 C 14,5 C 0,0 UV-I 0,0 C 46 % 65 % 0 % 1026,9 hPa 0,0 l/m 0,0 km/h (0 Bft) 0 min 0,0 km/h (0 Bft)
26.04.2010 21:22 20,2 C 14,3 C 0,0 UV-I 0,0 C 46 % 65 % 0 % 1026,9 hPa 0,0 l/m 0,4 km/h (0 Bft) 0 min 5,6 km/h (1 Bft)
26.04.2010 21:24 20,2 C 14,3 C 0,0 UV-I 0,0 C 46 % 65 % 0 % 1026,9 hPa 0,0 l/m 1,2 km/h (1 Bft) 0 min 4,4 km/h (1 Bft)
26.04.2010 21:26 20,2 C 14,2 C 0,0 UV-I 0,0 C 46 % 65 % 0 % 1026,9 hPa 0,0 l/m 1,6 km/h (1 Bft) 0 min 0,0 km/h (0 Bft)
26.04.2010 21:28 20,2 C 14,2 C 0,0 UV-I 0,0 C 46 % 65 % 0 % 1026,9 hPa 0,0 l/m 1,6 km/h (1 Bft) 0 min 0,0 km/h (0 Bft)
26.04.2010 21:30 20,2 C 14,1 C 0,0 UV-I 0,0 C 46 % 65 % 0 % 1026,9 hPa 0,0 l/m 1,6 km/h (1 Bft) 0 min 0,0 km/h (0 Bft)
26.04.2010 21:32 20,2 C 14,0 C 0,0 UV-I 0,0 C 46 % 65 % 0 % 1027,2 hPa 0,0 l/m 2,4 km/h (1 Bft) 0 min 0,0 km/h (0 Bft)
26.04.2010 21:34 20,2 C 14,1 C 0,0 UV-I 0,0 C 46 % 65 % 0 % 1027,2 hPa 0,0 l/m 1,6 km/h (1 Bft) 0 min 0,0 km/h (0 Bft)
26.04.2010 21:36 20,1 C 14,0 C 0,0 UV-I 0,0 C 46 % 65 % 0 % 1027,2 hPa 0,0 l/m 1,6 km/h (1 Bft) 0 min 0,0 km/h (0 Bft)
26.04.2010 21:38 20,1 C 13,9 C 0,0 UV-I 0,0 C 46 % 65 % 0 % 1027,2 hPa 0,0 l/m 1,2 km/h (1 Bft) 0 min 0,0 km/h (0 Bft)
26.04.2010 21:40 20,1 C 13,9 C 0,0 UV-I 0,0 C 46 % 66 % 0 % 1027,2 hPa 0,0 l/m 1,6 km/h (1 Bft) 0 min 4,0 km/h (1 Bft)
26.04.2010 21:42 20,1 C 13,9 C 0,0 UV-I 0,0 C 46 % 66 % 0 % 1027,2 hPa 0,0 l/m 1,2 km/h (1 Bft) 0 min 6,0 km/h (2 Bft)
26.04.2010 21:44 20,1 C 13,9 C 0,0 UV-I 0,0 C 46 % 66 % 0 % 1027,2 hPa 0,0 l/m 0,8 km/h (0 Bft) 0 min 0,0 km/h (0 Bft)
26.04.2010 21:46 20,1 C 13,7 C 0,0 UV-I 0,0 C 46 % 66 % 0 % 1027,2 hPa 0,0 l/m 0,8 km/h (0 Bft) 0 min 0,0 km/h (0 Bft)
26.04.2010 21:48 20,0 C 13,6 C 0,0 UV-I 0,0 C 46 % 66 % 0 % 1027,2 hPa 0,0 l/m 0,8 km/h (0 Bft) 0 min 0,0 km/h (0 Bft)
26.04.2010 21:50 20,0 C 13,7 C 0,0 UV-I 0,0 C 47 % 67 % 0 % 1027,2 hPa 0,0 l/m 0,8 km/h (0 Bft) 0 min 0,0 km/h (0 Bft)
26.04.2010 21:52 20,0 C 13,6 C 0,0 UV-I 0,0 C 46 % 67 % 0 % 1027,5 hPa 0,0 l/m 0,8 km/h (0 Bft) 0 min 0,0 km/h (0 Bft)
26.04.2010 21:54 20,0 C 13,5 C 0,0 UV-I 0,0 C 46 % 67 % 0 % 1027,5 hPa 0,0 l/m 0,4 km/h (0 Bft) 0 min 0,0 km/h (0 Bft)
26.04.2010 21:56 20,0 C 13,4 C 0,0 UV-I 0,0 C 47 % 67 % 0 % 1027,5 hPa 0,0 l/m 0,0 km/h (0 Bft) 0 min 0,0 km/h (0 Bft)
26.04.2010 21:58 20,0 C 13,5 C 0,0 UV-I 0,0 C 47 % 67 % 0 % 1027,5 hPa 0,0 l/m 0,0 km/h (0 Bft) 0 min 0,0 km/h (0 Bft)
26.04.2010 22:00 20,0 C 13,3 C 0,0 UV-I 0,0 C 47 % 67 % 0 % 1027,5 hPa 0,0 l/m 0,0 km/h (0 Bft) 0 min 0,0 km/h (0 Bft)
26.04.2010 22:02 20,0 C 13,3 C 0,0 UV-I 0,0 C 47 % 67 % 0 % 1027,5 hPa 0,0 l/m 0,0 km/h (0 Bft) 0 min 0,0 km/h (0 Bft)
26.04.2010 22:04 20,0 C 13,2 C 0,0 UV-I 0,0 C 47 % 68 % 0 % 1027,5 hPa 0,0 l/m 0,0 km/h (0 Bft) 0 min 0,0 km/h (0 Bft)
26.04.2010 22:06 20,0 C 13,2 C 0,0 UV-I 0,0 C 47 % 68 % 0 % 1027,5 hPa 0,0 l/m 0,0 km/h (0 Bft) 0 min 0,0 km/h (0 Bft)
26.04.2010 22:08 20,0 C 13,1 C 0,0 UV-I 0,0 C 47 % 68 % 0 % 1027,5 hPa 0,0 l/m 0,0 km/h (0 Bft) 0 min 4,0 km/h (1 Bft)
26.04.2010 22:10 19,9 C 13,1 C 0,0 UV-I 0,0 C 47 % 68 % 0 % 1027,5 hPa 0,0 l/m 0,0 km/h (0 Bft) 0 min 0,0 km/h (0 Bft)
26.04.2010 22:12 19,9 C 13,1 C 0,0 UV-I 0,0 C 47 % 68 % 0 % 1027,4 hPa 0,0 l/m 0,4 km/h (0 Bft) 0 min 0,0 km/h (0 Bft)
26.04.2010 22:14 19,9 C 12,9 C 0,0 UV-I 0,0 C 47 % 68 % 0 % 1027,4 hPa 0,0 l/m 0,4 km/h (0 Bft) 0 min 0,0 km/h (0 Bft)
26.04.2010 22:16 19,9 C 12,9 C 0,0 UV-I 0,0 C 47 % 69 % 0 % 1027,4 hPa 0,0 l/m 0,4 km/h (0 Bft) 0 min 4,8 km/h (1 Bft)
26.04.2010 22:18 19,9 C 12,8 C 0,0 UV-I 0,0 C 47 % 69 % 0 % 1027,4 hPa 0,0 l/m 0,4 km/h (0 Bft) 0 min 0,0 km/h (0 Bft)
26.04.2010 22:20 19,8 C 12,9 C 0,0 UV-I 0,0 C 47 % 69 % 0 % 1027,4 hPa 0,0 l/m 0,4 km/h (0 Bft) 0 min 0,0 km/h (0 Bft)
26.04.2010 22:22 19,8 C 12,8 C 0,0 UV-I 0,0 C 47 % 69 % 0 % 1027,4 hPa 0,0 l/m 0,4 km/h (0 Bft) 0 min 0,0 km/h (0 Bft)
26.04.2010 22:26 19,8 C 12,6 C 0,0 UV-I 0,0 C 47 % 69 % 0 % 1027,4 hPa 0,0 l/m 0,4 km/h (0 Bft) 0 min 0,0 km/h (0 Bft)
26.04.2010 22:28 19,8 C 12,5 C 0,0 UV-I 0,0 C 47 % 70 % 0 % 1027,4 hPa 0,0 l/m 0,0 km/h (0 Bft) 0 min 0,0 km/h (0 Bft)
26.04.2010 22:30 19,8 C 12,5 C 0,0 UV-I 0,0 C 47 % 70 % 0 % 1027,4 hPa 0,0 l/m 0,0 km/h (0 Bft) 0 min 0,0 km/h (0 Bft)
26.04.2010 22:32 19,7 C 12,5 C 0,0 UV-I 0,0 C 47 % 70 % 0 % 1027,4 hPa 0,0 l/m 0,0 km/h (0 Bft) 0 min 0,0 km/h (0 Bft)
26.04.2010 22:34 19,7 C 12,5 C 0,0 UV-I 0,0 C 47 % 70 % 0 % 1027,4 hPa 0,0 l/m 0,0 km/h (0 Bft) 0 min 0,0 km/h (0 Bft)
26.04.2010 22:36 19,7 C 12,4 C 0,0 UV-I 0,0 C 47 % 71 % 0 % 1027,4 hPa 0,0 l/m 0,0 km/h (0 Bft) 0 min 0,0 km/h (0 Bft)
26.04.2010 22:38 19,6 C 12,3 C 0,0 UV-I 0,0 C 47 % 71 % 0 % 1027,4 hPa 0,0 l/m 0,0 km/h (0 Bft) 0 min 0,0 km/h (0 Bft)
26.04.2010 22:42 19,6 C 12,2 C 0,0 UV-I 0,0 C 48 % 72 % 0 % 1027,4 hPa 0,0 l/m 0,0 km/h (0 Bft) 0 min 0,0 km/h (0 Bft)
26.04.2010 22:44 19,6 C 12,1 C 0,0 UV-I 0,0 C 48 % 72 % 0 % 1027,4 hPa 0,0 l/m 0,0 km/h (0 Bft) 0 min 0,0 km/h (0 Bft)
26.04.2010 22:46 19,6 C 12,0 C 0,0 UV-I 0,0 C 48 % 72 % 0 % 1027,4 hPa 0,0 l/m 0,0 km/h (0 Bft) 0 min 0,0 km/h (0 Bft)
26.04.2010 22:48 19,6 C 12,1 C 0,0 UV-I 0,0 C 48 % 72 % 0 % 1027,4 hPa 0,0 l/m 0,0 km/h (0 Bft) 0 min 0,0 km/h (0 Bft)
26.04.2010 22:50 19,6 C 12,0 C 0,0 UV-I 0,0 C 48 % 72 % 0 % 1027,4 hPa 0,0 l/m 0,0 km/h (0 Bft) 0 min 0,0 km/h (0 Bft)
26.04.2010 22:52 19,6 C 11,9 C 0,0 UV-I 0,0 C 48 % 72 % 0 % 1027,6 hPa 0,0 l/m 0,0 km/h (0 Bft) 0 min 0,0 km/h (0 Bft)
26.04.2010 22:54 19,5 C 11,9 C 0,0 UV-I 0,0 C 48 % 72 % 0 % 1027,6 hPa 0,0 l/m 0,0 km/h (0 Bft) 0 min 0,0 km/h (0 Bft)
26.04.2010 22:56 19,5 C 11,9 C 0,0 UV-I 0,0 C 48 % 72 % 0 % 1027,6 hPa 0,0 l/m 0,0 km/h (0 Bft) 0 min 0,0 km/h (0 Bft)
26.04.2010 22:58 19,5 C 11,9 C 0,0 UV-I 0,0 C 48 % 73 % 0 % 1027,6 hPa 0,0 l/m 0,0 km/h (0 Bft) 0 min 0,0 km/h (0 Bft)
26.04.2010 23:00 19,5 C 11,7 C 0,0 UV-I 0,0 C 48 % 73 % 0 % 1027,6 hPa 0,0 l/m 0,0 km/h (0 Bft) 0 min 0,0 km/h (0 Bft)
26.04.2010 23:02 19,4 C 11,7 C 0,0 UV-I 0,0 C 48 % 73 % 0 % 1027,6 hPa 0,0 l/m 0,0 km/h (0 Bft) 0 min 0,0 km/h (0 Bft)
26.04.2010 23:04 19,5 C 11,6 C 0,0 UV-I 0,0 C 48 % 73 % 0 % 1027,6 hPa 0,0 l/m 0,4 km/h (0 Bft) 0 min 4,0 km/h (1 Bft)
26.04.2010 23:06 19,4 C 11,7 C 0,0 UV-I 0,0 C 48 % 73 % 0 % 1027,6 hPa 0,0 l/m 0,4 km/h (0 Bft) 0 min 0,0 km/h (0 Bft)
26.04.2010 23:08 19,4 C 11,6 C 0,0 UV-I 0,0 C 48 % 73 % 0 % 1027,6 hPa 0,0 l/m 0,4 km/h (0 Bft) 0 min 0,0 km/h (0 Bft)
26.04.2010 23:10 19,4 C 11,6 C 0,0 UV-I 0,0 C 48 % 74 % 0 % 1027,6 hPa 0,0 l/m 0,4 km/h (0 Bft) 0 min 0,0 km/h (0 Bft)
26.04.2010 23:12 19,4 C 11,5 C 0,0 UV-I 0,0 C 48 % 74 % 0 % 1027,2 hPa 0,0 l/m 0,4 km/h (0 Bft) 0 min 0,0 km/h (0 Bft)
26.04.2010 23:14 19,4 C 11,5 C 0,0 UV-I 0,0 C 48 % 74 % 0 % 1027,2 hPa 0,0 l/m 0,0 km/h (0 Bft) 0 min 0,0 km/h (0 Bft)
26.04.2010 23:16 19,4 C 11,5 C 0,0 UV-I 0,0 C 48 % 74 % 0 % 1027,2 hPa 0,0 l/m 0,0 km/h (0 Bft) 0 min 0,0 km/h (0 Bft)
26.04.2010 23:18 19,4 C 11,3 C 0,0 UV-I 0,0 C 48 % 74 % 0 % 1027,2 hPa 0,0 l/m 0,0 km/h (0 Bft) 0 min 0,0 km/h (0 Bft)
26.04.2010 23:22 19,2 C 11,2 C 0,0 UV-I 0,0 C 48 % 75 % 0 % 1027,2 hPa 0,0 l/m 0,0 km/h (0 Bft) 0 min 0,0 km/h (0 Bft)
26.04.2010 23:24 19,2 C 11,2 C 0,0 UV-I 0,0 C 48 % 75 % 0 % 1027,2 hPa 0,0 l/m 0,0 km/h (0 Bft) 0 min 0,0 km/h (0 Bft)
26.04.2010 23:26 19,2 C 11,1 C 0,0 UV-I 0,0 C 48 % 75 % 0 % 1027,2 hPa 0,0 l/m 0,0 km/h (0 Bft) 0 min 0,0 km/h (0 Bft)
26.04.2010 23:28 19,3 C 11,1 C 0,0 UV-I 0,0 C 48 % 75 % 0 % 1027,2 hPa 0,0 l/m 0,0 km/h (0 Bft) 0 min 0,0 km/h (0 Bft)
26.04.2010 23:32 19,3 C 11,1 C 0,0 UV-I 0,0 C 48 % 75 % 0 % 1027,4 hPa 0,0 l/m 0,0 km/h (0 Bft) 0 min 0,0 km/h (0 Bft)
26.04.2010 23:34 19,3 C 11,0 C 0,0 UV-I 0,0 C 48 % 75 % 0 % 1027,4 hPa 0,0 l/m 0,0 km/h (0 Bft) 0 min 0,0 km/h (0 Bft)
26.04.2010 23:36 19,2 C 10,9 C 0,0 UV-I 0,0 C 48 % 75 % 0 % 1027,4 hPa 0,0 l/m 0,0 km/h (0 Bft) 0 min 0,0 km/h (0 Bft)
26.04.2010 23:38 19,2 C 10,9 C 0,0 UV-I 0,0 C 48 % 75 % 0 % 1027,4 hPa 0,0 l/m 0,0 km/h (0 Bft) 0 min 0,0 km/h (0 Bft)
26.04.2010 23:40 19,2 C 10,9 C 0,0 UV-I 0,0 C 49 % 76 % 0 % 1027,4 hPa 0,0 l/m 0,0 km/h (0 Bft) 0 min 0,0 km/h (0 Bft)
26.04.2010 23:42 19,2 C 10,8 C 0,0 UV-I 0,0 C 48 % 76 % 0 % 1027,4 hPa 0,0 l/m 0,0 km/h (0 Bft) 0 min 0,0 km/h (0 Bft)
26.04.2010 23:44 19,2 C 10,7 C 0,0 UV-I 0,0 C 48 % 76 % 0 % 1027,4 hPa 0,0 l/m 0,0 km/h (0 Bft) 0 min 0,0 km/h (0 Bft)
26.04.2010 23:46 19,2 C 10,7 C 0,0 UV-I 0,0 C 49 % 76 % 0 % 1027,4 hPa 0,0 l/m 0,0 km/h (0 Bft) 0 min 0,0 km/h (0 Bft)
26.04.2010 23:48 19,2 C 10,7 C 0,0 UV-I 0,0 C 49 % 76 % 0 % 1027,4 hPa 0,0 l/m 0,0 km/h (0 Bft) 0 min 0,0 km/h (0 Bft)
26.04.2010 23:50 19,2 C 10,7 C 0,0 UV-I 0,0 C 49 % 77 % 0 % 1027,4 hPa 0,0 l/m 0,0 km/h (0 Bft) 0 min 0,0 km/h (0 Bft)
26.04.2010 23:52 19,2 C 10,6 C 0,0 UV-I 0,0 C 49 % 77 % 0 % 1027,5 hPa 0,0 l/m 0,0 km/h (0 Bft) 0 min 0,0 km/h (0 Bft)
26.04.2010 23:54 19,2 C 10,5 C 0,0 UV-I 0,0 C 49 % 77 % 0 % 1027,5 hPa 0,0 l/m 0,0 km/h (0 Bft) 0 min 0,0 km/h (0 Bft)
26.04.2010 23:56 19,2 C 10,5 C 0,0 UV-I 0,0 C 49 % 77 % 0 % 1027,5 hPa 0,0 l/m 0,0 km/h (0 Bft) 0 min 0,0 km/h (0 Bft)
26.04.2010 23:58 19,2 C 10,4 C 0,0 UV-I 0,0 C 49 % 77 % 0 % 1027,5 hPa 0,0 l/m 0,0 km/h (0 Bft) 0 min 0,0 km/h (0 Bft)
_ Min-Zeit 07:00 06:46 00:00 00:00 00:00 15:50 00:00 01:52 - 01:54 - 00:06
Minimum _ 18,5 C 9,2 C 0,0 UV-I 0,0 C 43 % 52 % 0 % 1022,9 hPa - 0,0 km/h (0 Bft) - 0,0 km/h (0 Bft)
_ Max-Zeit 15:20 15:12 14:50 13:48 07:20 07:44 13:18 14:32 00:34 13:40 12:38 13:40
Maximum _ 22,3 C 19,7 C 11,9 UV-I 6,0 C 51 % 91 % 100 % 1028,8 hPa 0,3 l/m 12,4 km/h
O-NO (3 Bft)
2 min 39,3 km/h
O-NO (6 Bft)
Durchschnitt _ 20,0 C 13,9 C 1,5 UV-I 0,9 C 48 % 75 % 22 % 1025,4 hPa #2,9 l/m 3,9 km/h (1 Bft) #2:28 h 6,0 km/h (2 Bft)
© 2012 W. Hausmann